Time,TemperatureF,DewpointF,PressureIn,WindDirection,WindDirectionDegrees,WindSpeedMPH,WindSpeedGustMPH,Humidity,HourlyPrecipIn,Conditions,Clouds,dailyrainin,SoftwareType,DateUTC
2013-03-13 00:00:00,38.0,27.6,29.99,ESE,113,0.9,1.3,66,0.00,,,0.00,WUHU216HW,2013-03-13 04:00:00,
2013-03-13 00:02:00,37.8,27.5,29.99,ESE,113,2.0,2.0,66,0.00,,,0.00,WUHU216HW,2013-03-13 04:02:00,
2013-03-13 00:05:00,37.8,27.5,29.99,ESE,113,0.8,2.0,66,0.00,,,0.00,WUHU216HW,2013-03-13 04:05:00,
2013-03-13 00:06:00,37.6,27.3,29.99,ESE,113,0.4,2.0,66,0.00,,,0.00,WUHU216HW,2013-03-13 04:06:00,
2013-03-13 00:07:00,37.6,27.6,29.99,ESE,113,0.0,2.0,67,0.00,,,0.00,WUHU216HW,2013-03-13 04:07:00,
2013-03-13 00:11:00,37.4,27.5,29.99,ESE,113,0.3,2.0,67,0.00,,,0.00,WUHU216HW,2013-03-13 04:11:00,
2013-03-13 00:13:00,37.4,27.5,29.99,ESE,113,0.2,1.3,67,0.00,,,0.00,WUHU216HW,2013-03-13 04:13:00,
2013-03-13 00:17:00,37.1,27.6,29.99,SE,135,1.1,1.6,68,0.00,,,0.00,WUHU216HW,2013-03-13 04:17:00,
2013-03-13 00:18:00,37.1,27.6,29.99,SE,135,0.4,1.6,68,0.00,,,0.00,WUHU216HW,2013-03-13 04:18:00,
2013-03-13 00:19:00,37.1,27.6,29.99,ESE,113,1.1,1.6,68,0.00,,,0.00,WUHU216HW,2013-03-13 04:19:00,
2013-03-13 00:22:00,37.1,27.6,29.99,SE,135,0.6,1.6,68,0.00,,,0.00,WUHU216HW,2013-03-13 04:22:00,
2013-03-13 00:23:00,36.9,27.4,29.99,ESE,113,0.4,1.6,68,0.00,,,0.00,WUHU216HW,2013-03-13 04:23:00,
2013-03-13 00:24:00,36.9,27.4,29.99,ESE,113,1.8,1.8,68,0.00,,,0.00,WUHU216HW,2013-03-13 04:24:00,
2013-03-13 00:27:00,36.7,27.2,29.99,SSE,158,1.3,1.8,68,0.00,,,0.00,WUHU216HW,2013-03-13 04:27:00,
2013-03-13 00:28:00,36.5,27.0,30.00,SSE,147,1.2,1.8,68,0.00,,,0.00,WUHU216HW,2013-03-13 04:28:00,
2013-03-13 00:29:00,36.5,27.4,30.00,SE,146,1.1,1.8,69,0.00,,,0.00,WUHU216HW,2013-03-13 04:29:00,
2013-03-13 00:30:00,36.5,27.4,30.00,SSE,158,1.1,1.8,69,0.00,,,0.00,WUHU216HW,2013-03-13 04:30:00,
2013-03-13 00:33:00,36.5,27.7,30.00,SE,135,1.1,1.8,70,0.00,,,0.00,WUHU216HW,2013-03-13 04:33:00,
2013-03-13 00:35:00,36.7,27.9,30.00,SE,128,1.7,2.2,70,0.00,,,0.00,WUHU216HW,2013-03-13 04:35:00,
2013-03-13 00:38:00,36.7,28.3,29.99,SE,135,0.9,2.2,71,0.00,,,0.00,WUHU216HW,2013-03-13 04:38:00,
2013-03-13 00:39:00,36.9,28.1,30.00,SE,135,0.6,2.2,70,0.00,,,0.00,WUHU216HW,2013-03-13 04:39:00,
2013-03-13 00:40:00,36.9,28.1,29.99,SE,135,0.4,2.2,70,0.00,,,0.00,WUHU216HW,2013-03-13 04:40:00,
2013-03-13 00:41:00,36.9,28.1,29.99,SE,135,0.0,2.2,70,0.00,,,0.00,WUHU216HW,2013-03-13 04:41:00,
2013-03-13 00:43:00,36.7,27.9,30.00,SSE,158,1.3,2.2,70,0.00,,,0.00,WUHU216HW,2013-03-13 04:43:00,
2013-03-13 00:44:00,36.7,27.9,30.00,SSE,147,1.2,1.3,70,0.00,,,0.00,WUHU216HW,2013-03-13 04:44:00,
2013-03-13 00:45:00,36.7,27.9,30.00,SE,145,1.0,1.3,70,0.00,,,0.00,WUHU216HW,2013-03-13 04:45:00,
2013-03-13 00:46:00,36.5,27.7,30.00,SSE,158,0.9,1.3,70,0.00,,,0.00,WUHU216HW,2013-03-13 04:46:00,
2013-03-13 00:48:00,36.5,27.7,30.00,SSE,158,0.0,1.3,70,0.00,,,0.00,WUHU216HW,2013-03-13 04:48:00,
2013-03-13 00:49:00,36.5,27.7,30.00,SSE,158,0.7,1.3,70,0.00,,,0.00,WUHU216HW,2013-03-13 04:49:00,
2013-03-13 00:51:00,36.5,27.7,30.00,SSE,158,0.2,1.3,70,0.00,,,0.00,WUHU216HW,2013-03-13 04:51:00,
2013-03-13 00:52:00,36.5,27.7,30.00,SSE,158,0.2,1.3,70,0.00,,,0.00,WUHU216HW,2013-03-13 04:52:00,
2013-03-13 00:54:00,36.5,28.1,30.00,SE,135,1.0,1.6,71,0.00,,,0.00,WUHU216HW,2013-03-13 04:54:00,
2013-03-13 00:55:00,36.5,28.1,30.00,SE,135,0.7,1.6,71,0.00,,,0.00,WUHU216HW,2013-03-13 04:55:00,
2013-03-13 00:56:00,36.5,28.1,30.00,SE,135,1.1,1.6,71,0.00,,,0.00,WUHU216HW,2013-03-13 04:56:00,
2013-03-13 00:57:00,36.5,28.1,30.00,ESE,113,1.1,1.6,71,0.00,,,0.00,WUHU216HW,2013-03-13 04:57:00,
2013-03-13 01:00:00,36.5,27.7,30.00,ESE,113,1.1,1.6,70,0.00,,,0.00,WUHU216HW,2013-03-13 05:00:00,
2013-03-13 01:01:00,36.5,28.1,30.00,ESE,113,1.1,1.6,71,0.00,,,0.00,WUHU216HW,2013-03-13 05:01:00,
2013-03-13 01:03:00,36.4,27.9,30.00,ESE,113,0.4,1.1,71,0.00,,,0.00,WUHU216HW,2013-03-13 05:03:00,
2013-03-13 01:05:00,36.4,27.9,30.00,East,90,0.0,1.1,71,0.00,,,0.00,WUHU216HW,2013-03-13 05:05:00,
2013-03-13 01:06:00,36.4,27.9,30.00,East,90,0.0,1.1,71,0.00,,,0.00,WUHU216HW,2013-03-13 05:06:00,
2013-03-13 01:07:00,36.4,27.9,30.00,East,90,0.0,1.1,71,0.00,,,0.00,WUHU216HW,2013-03-13 05:07:00,
2013-03-13 01:08:00,36.4,27.9,30.00,SE,135,1.1,1.1,71,0.00,,,0.00,WUHU216HW,2013-03-13 05:08:00,
2013-03-13 01:10:00,36.4,27.9,30.00,SE,126,0.9,1.1,71,0.00,,,0.00,WUHU216HW,2013-03-13 05:10:00,
2013-03-13 01:11:00,36.2,27.7,30.00,ESE,113,0.6,1.1,71,0.00,,,0.00,WUHU216HW,2013-03-13 05:11:00,
2013-03-13 01:12:00,36.2,27.7,30.00,ESE,113,0.4,1.1,71,0.00,,,0.00,WUHU216HW,2013-03-13 05:12:00,
2013-03-13 01:14:00,36.2,27.7,30.00,ESE,113,1.3,1.3,71,0.00,,,0.00,WUHU216HW,2013-03-13 05:14:00,
2013-03-13 01:15:00,36.2,27.7,30.00,SE,135,1.1,1.3,71,0.00,,,0.00,WUHU216HW,2013-03-13 05:15:00,
2013-03-13 01:16:00,36.0,27.6,30.00,ESE,113,1.1,1.3,71,0.00,,,0.00,WUHU216HW,2013-03-13 05:16:00,
2013-03-13 01:17:00,36.0,27.6,30.00,ESE,113,1.1,1.3,71,0.00,,,0.00,WUHU216HW,2013-03-13 05:17:00,
2013-03-13 01:20:00,35.8,28.0,30.00,ESE,113,2.0,2.0,73,0.00,,,0.00,WUHU216HW,2013-03-13 05:20:00,
2013-03-13 01:22:00,35.6,27.5,30.00,ESE,113,1.1,2.0,72,0.00,,,0.00,WUHU216HW,2013-03-13 05:22:00,
2013-03-13 01:23:00,35.6,27.5,30.00,ESE,113,1.1,2.0,72,0.00,,,0.00,WUHU216HW,2013-03-13 05:23:00,
2013-03-13 01:25:00,35.6,27.5,30.00,ESE,113,1.1,2.0,72,0.00,,,0.00,WUHU216HW,2013-03-13 05:25:00,
2013-03-13 01:27:00,35.3,27.1,30.00,ESE,113,1.3,2.0,72,0.00,,,0.00,WUHU216HW,2013-03-13 05:27:00,
2013-03-13 01:28:00,35.3,27.1,30.00,ESE,113,1.0,2.0,72,0.00,,,0.00,WUHU216HW,2013-03-13 05:28:00,
2013-03-13 01:29:00,35.3,27.1,30.00,ESE,113,1.1,2.0,72,0.00,,,0.00,WUHU216HW,2013-03-13 05:29:00,
2013-03-13 01:31:00,35.1,26.9,30.00,ESE,113,0.9,1.3,72,0.00,,,0.00,WUHU216HW,2013-03-13 05:31:00,
2013-03-13 01:32:00,35.1,27.3,30.00,ESE,113,0.4,1.3,73,0.00,,,0.00,WUHU216HW,2013-03-13 05:32:00,
2013-03-13 01:33:00,35.1,27.3,30.00,ESE,113,0.9,1.3,73,0.00,,,0.00,WUHU216HW,2013-03-13 05:33:00,
2013-03-13 01:34:00,34.9,27.1,30.00,ESE,113,0.8,1.3,73,0.00,,,0.00,WUHU216HW,2013-03-13 05:34:00,
2013-03-13 01:37:00,34.9,27.1,30.00,ESE,113,0.9,1.1,73,0.00,,,0.00,WUHU216HW,2013-03-13 05:37:00,
2013-03-13 01:38:00,34.9,27.1,30.00,ESE,113,0.6,1.1,73,0.00,,,0.00,WUHU216HW,2013-03-13 05:38:00,
2013-03-13 01:39:00,34.9,27.1,30.00,ESE,113,0.7,1.1,73,0.00,,,0.00,WUHU216HW,2013-03-13 05:39:00,
2013-03-13 01:40:00,34.9,27.1,30.00,ESE,113,0.6,0.9,73,0.00,,,0.00,WUHU216HW,2013-03-13 05:40:00,
2013-03-13 01:43:00,35.1,27.3,30.00,ESE,113,1.1,1.1,73,0.00,,,0.00,WUHU216HW,2013-03-13 05:43:00,
2013-03-13 01:44:00,35.3,27.7,30.00,ESE,113,1.0,1.1,74,0.00,,,0.00,WUHU216HW,2013-03-13 05:44:00,
2013-03-13 01:45:00,35.3,27.7,30.00,ESE,113,1.0,1.1,74,0.00,,,0.00,WUHU216HW,2013-03-13 05:45:00,
2013-03-13 01:48:00,35.3,27.7,30.00,East,90,1.6,1.6,74,0.00,,,0.00,WUHU216HW,2013-03-13 05:48:00,
2013-03-13 01:50:00,35.1,27.5,30.00,East,90,0.6,1.6,74,0.00,,,0.00,WUHU216HW,2013-03-13 05:50:00,
2013-03-13 01:51:00,35.1,27.3,30.00,East,90,1.1,1.6,73,0.00,,,0.00,WUHU216HW,2013-03-13 05:51:00,
2013-03-13 01:53:00,34.9,27.1,30.00,East,90,0.7,1.6,73,0.00,,,0.00,WUHU216HW,2013-03-13 05:53:00,
2013-03-13 01:54:00,34.9,27.1,30.00,East,90,0.7,1.6,73,0.00,,,0.00,WUHU216HW,2013-03-13 05:54:00,
2013-03-13 01:57:00,34.7,26.9,30.00,East,90,0.9,1.6,73,0.00,,,0.00,WUHU216HW,2013-03-13 05:57:00,
2013-03-13 01:58:00,34.7,27.5,30.00,East,90,0.8,1.1,75,0.00,,,0.00,WUHU216HW,2013-03-13 05:58:00,
2013-03-13 01:59:00,34.7,27.5,30.00,ESE,113,0.7,1.1,75,0.00,,,0.00,WUHU216HW,2013-03-13 05:59:00,
2013-03-13 02:03:00,34.9,27.4,30.00,ESE,113,1.1,1.1,74,0.00,,,0.00,WUHU216HW,2013-03-13 06:03:00,
2013-03-13 02:06:00,34.9,27.4,30.00,ESE,113,1.5,1.8,74,0.00,,,0.00,WUHU216HW,2013-03-13 06:06:00,
2013-03-13 02:08:00,34.7,27.2,30.00,East,100,1.0,1.8,74,0.00,,,0.00,WUHU216HW,2013-03-13 06:08:00,
2013-03-13 02:09:00,34.7,27.5,30.00,East,90,0.9,1.8,75,0.00,,,0.00,WUHU216HW,2013-03-13 06:09:00,
2013-03-13 02:11:00,34.7,27.5,30.00,ESE,113,1.6,1.8,75,0.00,,,0.00,WUHU216HW,2013-03-13 06:11:00,
2013-03-13 02:13:00,34.7,27.5,30.00,East,90,0.9,1.8,75,0.00,,,0.00,WUHU216HW,2013-03-13 06:13:00,
2013-03-13 02:14:00,34.7,27.5,30.00,East,90,0.9,1.8,75,0.00,,,0.00,WUHU216HW,2013-03-13 06:14:00,
2013-03-13 02:16:00,34.7,27.5,30.00,East,90,0.7,1.6,75,0.00,,,0.00,WUHU216HW,2013-03-13 06:16:00,
2013-03-13 02:19:00,34.9,27.7,30.00,ENE,68,0.6,1.6,75,0.00,,,0.00,WUHU216HW,2013-03-13 06:19:00,
2013-03-13 02:22:00,34.9,27.7,30.00,ENE,68,0.8,1.1,75,0.00,,,0.00,WUHU216HW,2013-03-13 06:22:00,
2013-03-13 02:24:00,34.9,27.7,30.00,ENE,68,0.0,1.1,75,0.00,,,0.00,WUHU216HW,2013-03-13 06:24:00,
2013-03-13 02:25:00,34.9,27.7,30.00,ENE,68,0.4,1.1,75,0.00,,,0.00,WUHU216HW,2013-03-13 06:25:00,
2013-03-13 02:28:00,35.3,27.7,30.00,ENE,68,0.9,1.1,74,0.00,,,0.00,WUHU216HW,2013-03-13 06:28:00,
2013-03-13 02:29:00,35.3,27.7,30.00,ENE,68,0.6,1.1,74,0.00,,,0.00,WUHU216HW,2013-03-13 06:29:00,
2013-03-13 02:30:00,35.3,27.7,30.00,ENE,68,0.2,1.1,74,0.00,,,0.00,WUHU216HW,2013-03-13 06:30:00,
2013-03-13 02:31:00,35.5,27.9,30.00,NE,45,0.0,0.9,74,0.00,,,0.00,WUHU216HW,2013-03-13 06:31:00,
2013-03-13 02:33:00,35.6,28.4,30.00,NE,45,0.2,0.9,75,0.00,,,0.00,WUHU216HW,2013-03-13 06:33:00,
2013-03-13 02:34:00,35.6,28.1,30.00,NNW,338,0.0,0.9,74,0.00,,,0.00,WUHU216HW,2013-03-13 06:34:00,
2013-03-13 02:36:00,35.6,28.1,30.00,NW,315,0.4,0.9,74,0.00,,,0.00,WUHU216HW,2013-03-13 06:36:00,
2013-03-13 02:39:00,36.0,28.2,30.00,NNE,23,0.0,0.4,73,0.00,,,0.00,WUHU216HW,2013-03-13 06:39:00,
2013-03-13 02:41:00,36.0,28.2,30.00,NW,321,0.8,1.1,73,0.00,,,0.00,WUHU216HW,2013-03-13 06:41:00,
2013-03-13 02:42:00,36.0,28.2,30.00,NW,321,0.8,1.1,73,0.00,,,0.00,WUHU216HW,2013-03-13 06:42:00,
2013-03-13 02:44:00,36.4,28.5,30.00,NW,315,0.2,1.1,73,0.00,,,0.00,WUHU216HW,2013-03-13 06:44:00,
2013-03-13 02:45:00,36.4,28.5,30.00,NNW,338,0.4,1.1,73,0.00,,,0.00,WUHU216HW,2013-03-13 06:45:00,
2013-03-13 02:46:00,36.4,28.5,30.00,NNW,338,1.8,1.8,73,0.00,,,0.00,WUHU216HW,2013-03-13 06:46:00,
2013-03-13 02:48:00,36.5,28.4,30.00,NNW,338,0.4,1.8,72,0.00,,,0.00,WUHU216HW,2013-03-13 06:48:00,
2013-03-13 02:49:00,36.7,28.5,30.00,NNW,338,1.1,1.8,72,0.00,,,0.00,WUHU216HW,2013-03-13 06:49:00,
2013-03-13 02:50:00,36.7,28.5,30.00,NNW,338,1.1,1.8,72,0.00,,,0.00,WUHU216HW,2013-03-13 06:50:00,
2013-03-13 02:51:00,36.9,28.5,30.00,NNW,338,0.2,1.8,71,0.00,,,0.00,WUHU216HW,2013-03-13 06:51:00,
2013-03-13 02:53:00,37.1,28.6,30.00,NNW,338,0.0,1.8,71,0.00,,,0.00,WUHU216HW,2013-03-13 06:53:00,
2013-03-13 02:54:00,37.3,28.8,30.00,NNW,338,0.0,1.8,71,0.00,,,0.00,WUHU216HW,2013-03-13 06:54:00,
2013-03-13 02:55:00,37.3,28.8,30.00,NNE,23,0.0,1.8,71,0.00,,,0.00,WUHU216HW,2013-03-13 06:55:00,
2013-03-13 02:57:00,37.3,28.8,30.00,NNE,23,0.2,1.1,71,0.00,,,0.00,WUHU216HW,2013-03-13 06:57:00,
2013-03-13 02:59:00,37.1,28.6,30.00,NNE,23,0.0,0.2,71,0.00,,,0.00,WUHU216HW,2013-03-13 06:59:00,
2013-03-13 03:00:00,37.1,28.6,30.00,NNE,23,0.0,0.2,71,0.00,,,0.00,WUHU216HW,2013-03-13 07:00:00,
2013-03-13 03:01:00,36.9,28.5,30.00,NE,45,0.2,0.2,71,0.00,,,0.00,WUHU216HW,2013-03-13 07:01:00,
2013-03-13 03:03:00,36.7,28.3,30.00,NE,45,0.0,0.2,71,0.00,,,0.00,WUHU216HW,2013-03-13 07:03:00,
2013-03-13 03:04:00,36.5,28.1,30.00,NE,45,0.0,0.2,71,0.00,,,0.00,WUHU216HW,2013-03-13 07:04:00,
2013-03-13 03:06:00,36.4,27.5,30.00,NE,45,0.0,0.2,70,0.00,,,0.00,WUHU216HW,2013-03-13 07:06:00,
2013-03-13 03:08:00,36.4,27.9,30.00,East,90,0.0,0.2,71,0.00,,,0.00,WUHU216HW,2013-03-13 07:08:00,
2013-03-13 03:09:00,36.4,27.9,30.00,East,90,0.0,0.2,71,0.00,,,0.00,WUHU216HW,2013-03-13 07:09:00,
2013-03-13 03:10:00,36.2,27.7,29.99,East,90,0.0,0.2,71,0.00,,,0.00,WUHU216HW,2013-03-13 07:10:00,
2013-03-13 03:11:00,36.2,27.7,30.00,East,90,0.0,0.0,71,0.00,,,0.00,WUHU216HW,2013-03-13 07:11:00,
2013-03-13 03:14:00,36.0,27.6,29.99,East,90,0.0,0.0,71,0.00,,,0.00,WUHU216HW,2013-03-13 07:14:00,
2013-03-13 03:15:00,36.0,27.6,29.99,East,90,0.0,0.0,71,0.00,,,0.00,WUHU216HW,2013-03-13 07:15:00,
2013-03-13 03:17:00,35.6,27.2,29.99,East,90,0.4,0.4,71,0.00,,,0.00,WUHU216HW,2013-03-13 07:17:00,
2013-03-13 03:20:00,35.6,27.2,29.99,East,90,0.4,0.7,71,0.00,,,0.00,WUHU216HW,2013-03-13 07:20:00,
2013-03-13 03:22:00,35.5,27.0,29.99,East,90,0.4,0.7,71,0.00,,,0.00,WUHU216HW,2013-03-13 07:22:00,
2013-03-13 03:25:00,35.3,26.8,29.99,ESE,113,0.0,0.7,71,0.00,,,0.00,WUHU216HW,2013-03-13 07:25:00,
2013-03-13 03:27:00,35.3,26.8,29.99,ESE,113,0.0,0.7,71,0.00,,,0.00,WUHU216HW,2013-03-13 07:27:00,
2013-03-13 03:28:00,35.3,26.8,29.99,ESE,113,0.0,0.7,71,0.00,,,0.00,WUHU216HW,2013-03-13 07:28:00,
2013-03-13 03:30:00,35.1,26.7,29.99,ESE,113,0.0,0.7,71,0.00,,,0.00,WUHU216HW,2013-03-13 07:30:00,
2013-03-13 03:32:00,34.9,26.5,29.99,ESE,113,0.4,0.4,71,0.00,,,0.00,WUHU216HW,2013-03-13 07:32:00,
2013-03-13 03:33:00,34.9,26.5,29.99,ESE,113,1.1,1.1,71,0.00,,,0.00,WUHU216HW,2013-03-13 07:33:00,
2013-03-13 03:37:00,34.7,26.6,29.99,ESE,113,1.3,1.8,72,0.00,,,0.00,WUHU216HW,2013-03-13 07:37:00,
2013-03-13 03:38:00,34.6,26.4,29.99,ESE,113,1.1,1.8,72,0.00,,,0.00,WUHU216HW,2013-03-13 07:38:00,
2013-03-13 03:39:00,34.6,26.4,29.99,ESE,113,1.1,1.8,72,0.00,,,0.00,WUHU216HW,2013-03-13 07:39:00,
2013-03-13 03:43:00,34.2,26.0,29.99,ESE,113,0.0,1.8,72,0.00,,,0.00,WUHU216HW,2013-03-13 07:43:00,
2013-03-13 03:44:00,34.2,26.0,29.99,ESE,113,0.0,1.8,72,0.00,,,0.00,WUHU216HW,2013-03-13 07:44:00,
2013-03-13 03:48:00,34.0,25.8,29.98,ESE,113,0.0,1.1,72,0.00,,,0.00,WUHU216HW,2013-03-13 07:48:00,
2013-03-13 03:49:00,34.0,25.8,29.98,ESE,113,0.0,0.2,72,0.00,,,0.00,WUHU216HW,2013-03-13 07:49:00,
2013-03-13 03:50:00,34.0,25.8,29.98,ESE,113,0.0,0.0,72,0.00,,,0.00,WUHU216HW,2013-03-13 07:50:00,
2013-03-13 03:54:00,33.8,25.7,29.98,ESE,113,0.0,0.0,72,0.00,,,0.00,WUHU216HW,2013-03-13 07:54:00,
2013-03-13 03:55:00,33.8,25.7,29.98,ESE,113,0.0,0.0,72,0.00,,,0.00,WUHU216HW,2013-03-13 07:55:00,
2013-03-13 03:59:00,33.8,25.7,29.98,SSW,203,0.0,0.0,72,0.00,,,0.00,WUHU216HW,2013-03-13 07:59:00,
2013-03-13 04:00:00,33.8,25.7,29.99,SSW,203,0.0,0.0,72,0.00,,,0.00,WUHU216HW,2013-03-13 08:00:00,
2013-03-13 04:06:00,33.7,25.8,29.99,SSW,203,0.0,0.0,73,0.00,,,0.00,WUHU216HW,2013-03-13 08:06:00,
2013-03-13 04:08:00,33.7,25.8,29.99,SSW,203,0.0,0.0,73,0.00,,,0.00,WUHU216HW,2013-03-13 08:08:00,
2013-03-13 04:10:00,33.5,25.7,29.99,SSW,203,0.0,0.0,73,0.00,,,0.00,WUHU216HW,2013-03-13 08:10:00,
2013-03-13 04:12:00,33.5,26.0,29.99,SSW,203,0.0,0.0,74,0.00,,,0.00,WUHU216HW,2013-03-13 08:12:00,
2013-03-13 04:13:00,33.5,26.0,29.98,ESE,113,0.0,0.0,74,0.00,,,0.00,WUHU216HW,2013-03-13 08:13:00,
2013-03-13 04:14:00,33.5,26.0,29.99,SE,135,0.0,0.0,74,0.00,,,0.00,WUHU216HW,2013-03-13 08:14:00,
2013-03-13 04:15:00,33.5,26.0,29.98,SE,135,1.1,1.1,74,0.00,,,0.00,WUHU216HW,2013-03-13 08:15:00,
2013-03-13 04:18:00,33.3,25.8,29.98,SE,135,1.1,1.1,74,0.00,,,0.00,WUHU216HW,2013-03-13 08:18:00,
2013-03-13 04:20:00,33.3,25.8,29.98,ESE,113,1.1,1.1,74,0.00,,,0.00,WUHU216HW,2013-03-13 08:20:00,
2013-03-13 04:21:00,33.1,25.7,29.98,ESE,113,1.1,1.1,74,0.00,,,0.00,WUHU216HW,2013-03-13 08:21:00,
2013-03-13 04:23:00,32.9,25.5,29.98,ESE,113,1.2,1.3,74,0.00,,,0.00,WUHU216HW,2013-03-13 08:23:00,
2013-03-13 04:24:00,32.9,25.5,29.98,ESE,113,0.9,1.3,74,0.00,,,0.00,WUHU216HW,2013-03-13 08:24:00,
2013-03-13 04:25:00,32.8,25.4,29.98,SE,135,0.9,1.3,74,0.00,,,0.00,WUHU216HW,2013-03-13 08:25:00,
2013-03-13 04:27:00,32.8,25.4,29.98,SE,135,0.6,1.3,74,0.00,,,0.00,WUHU216HW,2013-03-13 08:27:00,
2013-03-13 04:30:00,32.4,25.0,29.98,SE,135,0.4,1.3,74,0.00,,,0.00,WUHU216HW,2013-03-13 08:30:00,
2013-03-13 04:33:00,32.2,25.2,29.98,SE,135,0.0,0.9,75,0.00,,,0.00,WUHU216HW,2013-03-13 08:33:00,
2013-03-13 04:35:00,32.0,25.0,29.98,SE,135,0.0,0.9,75,0.00,,,0.00,WUHU216HW,2013-03-13 08:35:00,
2013-03-13 04:36:00,32.0,25.0,29.98,SE,135,0.0,0.4,75,0.00,,,0.00,WUHU216HW,2013-03-13 08:36:00,
2013-03-13 04:38:00,32.0,25.0,29.98,SE,135,0.0,0.4,75,0.00,,,0.00,WUHU216HW,2013-03-13 08:38:00,
2013-03-13 04:39:00,32.0,25.0,29.98,SE,135,0.0,0.4,75,0.00,,,0.00,WUHU216HW,2013-03-13 08:39:00,
2013-03-13 04:41:00,32.0,25.0,29.98,SE,135,0.0,0.0,75,0.00,,,0.00,WUHU216HW,2013-03-13 08:41:00,
2013-03-13 04:42:00,32.0,25.0,29.98,SE,135,0.0,0.0,75,0.00,,,0.00,WUHU216HW,2013-03-13 08:42:00,
2013-03-13 04:43:00,32.0,25.0,29.98,SE,135,0.0,0.0,75,0.00,,,0.00,WUHU216HW,2013-03-13 08:43:00,
2013-03-13 04:45:00,32.0,25.0,29.98,SE,135,0.0,0.0,75,0.00,,,0.00,WUHU216HW,2013-03-13 08:45:00,
2013-03-13 04:46:00,32.0,25.0,29.98,SE,135,0.0,0.0,75,0.00,,,0.00,WUHU216HW,2013-03-13 08:46:00,
2013-03-13 04:47:00,32.2,25.5,29.98,SE,135,0.0,0.0,76,0.00,,,0.00,WUHU216HW,2013-03-13 08:47:00,
2013-03-13 04:49:00,32.2,25.5,29.98,SW,225,0.9,0.9,76,0.00,,,0.00,WUHU216HW,2013-03-13 08:49:00,
2013-03-13 04:50:00,32.2,25.5,29.99,SW,225,0.6,0.9,76,0.00,,,0.00,WUHU216HW,2013-03-13 08:50:00,
2013-03-13 04:52:00,32.2,25.5,29.99,SW,225,0.6,0.9,76,0.00,,,0.00,WUHU216HW,2013-03-13 08:52:00,
2013-03-13 04:53:00,32.2,25.5,29.99,SW,225,0.4,0.9,76,0.00,,,0.00,WUHU216HW,2013-03-13 08:53:00,
2013-03-13 04:54:00,32.2,25.8,29.99,SW,225,0.4,0.9,77,0.00,,,0.00,WUHU216HW,2013-03-13 08:54:00,
2013-03-13 04:57:00,32.2,25.5,29.98,SW,225,0.0,0.9,76,0.00,,,0.00,WUHU216HW,2013-03-13 08:57:00,
2013-03-13 04:58:00,32.2,25.5,29.98,SW,225,0.0,0.9,76,0.00,,,0.00,WUHU216HW,2013-03-13 08:58:00,
2013-03-13 04:59:00,32.2,25.5,29.98,SW,225,0.0,0.9,76,0.00,,,0.00,WUHU216HW,2013-03-13 08:59:00,
2013-03-13 05:03:00,32.2,25.8,29.98,East,90,1.0,1.1,77,0.00,,,0.00,WUHU216HW,2013-03-13 09:03:00,
2013-03-13 05:04:00,32.2,25.8,29.98,East,90,0.6,1.1,77,0.00,,,0.00,WUHU216HW,2013-03-13 09:04:00,
2013-03-13 05:08:00,32.0,25.7,29.99,East,90,0.4,1.1,77,0.00,,,0.00,WUHU216HW,2013-03-13 09:08:00,
2013-03-13 05:09:00,32.0,25.7,29.99,East,90,0.7,1.1,77,0.00,,,0.00,WUHU216HW,2013-03-13 09:09:00,
2013-03-13 05:10:00,32.0,25.4,29.99,East,90,0.7,1.1,76,0.00,,,0.00,WUHU216HW,2013-03-13 09:10:00,
2013-03-13 05:13:00,31.9,25.2,29.99,East,90,0.0,0.7,76,0.00,,,0.00,WUHU216HW,2013-03-13 09:13:00,
2013-03-13 05:14:00,31.9,25.5,29.99,East,90,0.4,0.7,77,0.00,,,0.00,WUHU216HW,2013-03-13 09:14:00,
2013-03-13 05:15:00,31.9,25.5,29.99,East,90,0.4,0.7,77,0.00,,,0.00,WUHU216HW,2013-03-13 09:15:00,
2013-03-13 05:16:00,31.7,25.3,29.99,East,90,0.9,0.9,77,0.00,,,0.00,WUHU216HW,2013-03-13 09:16:00,
2013-03-13 05:19:00,31.7,25.3,29.99,ESE,113,1.1,1.1,77,0.00,,,0.00,WUHU216HW,2013-03-13 09:19:00,
2013-03-13 05:20:00,31.5,25.1,29.99,ESE,113,0.9,1.1,77,0.00,,,0.00,WUHU216HW,2013-03-13 09:20:00,
2013-03-13 05:22:00,31.5,25.1,29.99,ESE,113,0.9,1.1,77,0.00,,,0.00,WUHU216HW,2013-03-13 09:22:00,
2013-03-13 05:24:00,31.3,25.6,29.99,ESE,113,0.9,1.1,79,0.00,,,0.00,WUHU216HW,2013-03-13 09:24:00,
2013-03-13 05:25:00,31.3,25.3,29.99,ESE,113,0.6,1.1,78,0.00,,,0.00,WUHU216HW,2013-03-13 09:25:00,
2013-03-13 05:27:00,31.3,25.3,29.99,ESE,113,0.4,1.1,78,0.00,,,0.00,WUHU216HW,2013-03-13 09:27:00,
2013-03-13 05:29:00,31.3,25.3,29.99,ESE,113,0.4,1.1,78,0.00,,,0.00,WUHU216HW,2013-03-13 09:29:00,
2013-03-13 05:31:00,31.3,25.3,29.99,ESE,113,1.1,1.1,78,0.00,,,0.00,WUHU216HW,2013-03-13 09:31:00,
2013-03-13 05:32:00,31.3,25.3,29.99,ESE,113,1.1,1.1,78,0.00,,,0.00,WUHU216HW,2013-03-13 09:32:00,
2013-03-13 05:34:00,31.3,25.3,29.99,ESE,113,0.0,1.1,78,0.00,,,0.00,WUHU216HW,2013-03-13 09:34:00,
2013-03-13 05:36:00,31.1,25.1,29.99,ESE,113,0.0,1.1,78,0.00,,,0.00,WUHU216HW,2013-03-13 09:36:00,
2013-03-13 05:37:00,31.1,25.1,29.99,ESE,113,0.0,1.1,78,0.00,,,0.00,WUHU216HW,2013-03-13 09:37:00,
2013-03-13 05:41:00,31.1,25.1,29.99,ESE,113,0.4,0.4,78,0.00,,,0.00,WUHU216HW,2013-03-13 09:41:00,
2013-03-13 05:42:00,31.1,25.1,29.99,SE,135,0.4,0.4,78,0.00,,,0.00,WUHU216HW,2013-03-13 09:42:00,
2013-03-13 05:47:00,31.0,24.9,29.99,SE,135,1.1,1.1,78,0.00,,,0.00,WUHU216HW,2013-03-13 09:47:00,
2013-03-13 05:48:00,31.0,24.9,29.99,SE,135,1.1,1.1,78,0.00,,,0.00,WUHU216HW,2013-03-13 09:48:00,
2013-03-13 05:52:00,30.8,24.8,29.99,SE,135,0.8,1.1,78,0.00,,,0.00,WUHU216HW,2013-03-13 09:52:00,
2013-03-13 05:53:00,30.8,24.8,29.99,SE,135,0.4,1.1,78,0.00,,,0.00,WUHU216HW,2013-03-13 09:53:00,
2013-03-13 05:55:00,30.6,24.6,29.99,SE,135,1.1,1.1,78,0.00,,,0.00,WUHU216HW,2013-03-13 09:55:00,
2013-03-13 05:57:00,30.6,24.6,29.99,ESE,113,0.9,1.1,78,0.00,,,0.00,WUHU216HW,2013-03-13 09:57:00,
2013-03-13 05:58:00,30.6,24.6,29.99,ESE,113,0.9,1.1,78,0.00,,,0.00,WUHU216HW,2013-03-13 09:58:00,
2013-03-13 06:00:00,30.6,24.6,29.99,ESE,113,1.1,1.1,78,0.00,,,0.00,WUHU216HW,2013-03-13 10:00:00,
2013-03-13 06:03:00,30.6,24.6,29.99,ESE,113,0.9,1.1,78,0.00,,,0.00,WUHU216HW,2013-03-13 10:03:00,
2013-03-13 06:04:00,30.6,24.8,29.99,ESE,113,1.3,1.3,79,0.00,,,0.00,WUHU216HW,2013-03-13 10:04:00,
2013-03-13 06:05:00,30.6,24.8,29.99,ESE,113,1.2,1.3,79,0.00,,,0.00,WUHU216HW,2013-03-13 10:05:00,
2013-03-13 06:08:00,30.6,24.8,29.99,ESE,113,0.9,1.3,79,0.00,,,0.00,WUHU216HW,2013-03-13 10:08:00,
2013-03-13 06:09:00,30.6,24.8,29.99,ESE,113,0.9,1.3,79,0.00,,,0.00,WUHU216HW,2013-03-13 10:09:00,
2013-03-13 06:12:00,30.6,24.8,29.99,ESE,113,0.0,1.3,79,0.00,,,0.00,WUHU216HW,2013-03-13 10:12:00,
2013-03-13 06:14:00,30.6,24.8,29.99,ESE,113,0.4,1.1,79,0.00,,,0.00,WUHU216HW,2013-03-13 10:14:00,
2013-03-13 06:16:00,30.6,24.8,29.99,ESE,113,1.0,1.1,79,0.00,,,0.00,WUHU216HW,2013-03-13 10:16:00,
2013-03-13 06:17:00,30.6,24.8,29.99,ESE,113,0.6,1.1,79,0.00,,,0.00,WUHU216HW,2013-03-13 10:17:00,
2013-03-13 06:19:00,30.6,24.8,29.99,ESE,113,1.1,1.1,79,0.00,,,0.00,WUHU216HW,2013-03-13 10:19:00,
2013-03-13 06:20:00,30.6,24.8,29.99,ESE,113,1.1,1.1,79,0.00,,,0.00,WUHU216HW,2013-03-13 10:20:00,
2013-03-13 06:21:00,30.6,24.8,29.99,ESE,113,0.8,1.1,79,0.00,,,0.00,WUHU216HW,2013-03-13 10:21:00,
2013-03-13 06:24:00,30.6,24.8,29.99,ESE,113,0.4,1.1,79,0.00,,,0.00,WUHU216HW,2013-03-13 10:24:00,
2013-03-13 06:25:00,30.6,24.8,29.99,ESE,113,0.2,1.1,79,0.00,,,0.00,WUHU216HW,2013-03-13 10:25:00,
2013-03-13 06:26:00,30.6,24.8,29.99,ESE,113,0.0,1.1,79,0.00,,,0.00,WUHU216HW,2013-03-13 10:26:00,
2013-03-13 06:27:00,30.6,24.8,29.99,ESE,113,0.0,1.1,79,0.00,,,0.00,WUHU216HW,2013-03-13 10:27:00,
2013-03-13 06:30:00,30.4,24.7,29.99,WSW,248,1.1,1.1,79,0.00,,,0.00,WUHU216HW,2013-03-13 10:30:00,
2013-03-13 06:31:00,30.4,24.4,30.00,WSW,248,1.1,1.1,78,0.00,,,0.00,WUHU216HW,2013-03-13 10:31:00,
2013-03-13 06:32:00,30.4,24.4,30.00,WSW,248,0.9,1.1,78,0.00,,,0.00,WUHU216HW,2013-03-13 10:32:00,
2013-03-13 06:35:00,30.4,24.7,30.00,WSW,248,0.6,1.1,79,0.00,,,0.00,WUHU216HW,2013-03-13 10:35:00,
2013-03-13 06:36:00,30.4,24.7,30.00,WSW,248,0.2,1.1,79,0.00,,,0.00,WUHU216HW,2013-03-13 10:36:00,
2013-03-13 06:37:00,30.2,24.5,30.00,WSW,248,0.0,1.1,79,0.00,,,0.00,WUHU216HW,2013-03-13 10:37:00,
2013-03-13 06:38:00,30.2,24.5,30.00,WSW,248,0.0,1.1,79,0.00,,,0.00,WUHU216HW,2013-03-13 10:38:00,
2013-03-13 06:41:00,30.4,25.0,30.00,NE,45,0.8,0.9,80,0.00,,,0.00,WUHU216HW,2013-03-13 10:41:00,
2013-03-13 06:42:00,30.4,25.0,30.00,NE,45,0.7,0.9,80,0.00,,,0.00,WUHU216HW,2013-03-13 10:42:00,
2013-03-13 06:43:00,30.6,25.2,30.00,NE,45,0.0,0.9,80,0.00,,,0.00,WUHU216HW,2013-03-13 10:43:00,
2013-03-13 06:44:00,30.6,25.2,30.00,NE,45,0.0,0.9,80,0.00,,,0.00,WUHU216HW,2013-03-13 10:44:00,
2013-03-13 06:46:00,30.6,24.8,30.00,NE,45,0.0,0.9,79,0.00,,,0.00,WUHU216HW,2013-03-13 10:46:00,
2013-03-13 06:48:00,30.6,24.8,30.00,NE,45,0.0,0.9,79,0.00,,,0.00,WUHU216HW,2013-03-13 10:48:00,
2013-03-13 06:49:00,30.6,24.8,30.00,NE,45,0.0,0.9,79,0.00,,,0.00,WUHU216HW,2013-03-13 10:49:00,
2013-03-13 06:50:00,30.6,24.8,30.00,NE,45,0.0,0.7,79,0.00,,,0.00,WUHU216HW,2013-03-13 10:50:00,
2013-03-13 06:51:00,30.6,24.8,30.00,NE,45,0.0,0.0,79,0.00,,,0.00,WUHU216HW,2013-03-13 10:51:00,
2013-03-13 06:53:00,30.4,24.7,30.00,NE,45,0.0,0.0,79,0.00,,,0.00,WUHU216HW,2013-03-13 10:53:00,
2013-03-13 06:55:00,30.4,24.7,30.00,NE,45,0.0,0.0,79,0.00,,,0.00,WUHU216HW,2013-03-13 10:55:00,
2013-03-13 06:56:00,30.4,24.7,30.00,WNW,293,0.0,0.0,79,0.00,,,0.00,WUHU216HW,2013-03-13 10:56:00,
2013-03-13 06:58:00,30.6,24.8,30.00,West,270,0.0,0.0,79,0.00,,,0.00,WUHU216HW,2013-03-13 10:58:00,
2013-03-13 07:02:00,30.6,24.8,30.00,West,270,0.0,0.0,79,0.00,,,0.00,WUHU216HW,2013-03-13 11:02:00,
2013-03-13 07:03:00,30.6,24.8,30.00,West,270,0.0,0.0,79,0.00,,,0.00,WUHU216HW,2013-03-13 11:03:00,
2013-03-13 07:08:00,30.6,24.8,30.01,West,270,0.0,0.0,79,0.00,,,0.00,WUHU216HW,2013-03-13 11:08:00,
2013-03-13 07:09:00,30.4,24.7,30.01,West,270,0.0,0.0,79,0.00,,,0.00,WUHU216HW,2013-03-13 11:09:00,
2013-03-13 07:10:00,30.4,25.0,30.01,West,270,0.0,0.0,80,0.00,,,0.00,WUHU216HW,2013-03-13 11:10:00,
2013-03-13 07:13:00,30.2,24.8,30.01,West,270,0.0,0.0,80,0.00,,,0.00,WUHU216HW,2013-03-13 11:13:00,
2013-03-13 07:14:00,30.2,24.8,30.01,West,270,0.0,0.0,80,0.00,,,0.00,WUHU216HW,2013-03-13 11:14:00,
2013-03-13 07:15:00,30.2,24.8,30.01,West,270,0.0,0.0,80,0.00,,,0.00,WUHU216HW,2013-03-13 11:15:00,
2013-03-13 07:18:00,30.2,24.8,30.01,West,270,0.0,0.0,80,0.00,,,0.00,WUHU216HW,2013-03-13 11:18:00,
2013-03-13 07:19:00,30.2,24.8,30.01,West,270,0.0,0.0,80,0.00,,,0.00,WUHU216HW,2013-03-13 11:19:00,
2013-03-13 07:20:00,30.1,24.7,30.01,West,270,0.0,0.0,80,0.00,,,0.00,WUHU216HW,2013-03-13 11:20:00,
2013-03-13 07:23:00,30.2,24.8,30.01,West,270,0.0,0.0,80,0.00,,,0.00,WUHU216HW,2013-03-13 11:23:00,
2013-03-13 07:25:00,30.1,24.7,30.01,West,270,0.0,0.0,80,0.00,,,0.00,WUHU216HW,2013-03-13 11:25:00,
2013-03-13 07:26:00,30.1,24.7,30.01,West,270,0.0,0.0,80,0.00,,,0.00,WUHU216HW,2013-03-13 11:26:00,
2013-03-13 07:28:00,30.1,24.7,30.02,West,270,0.0,0.0,80,0.00,,,0.00,WUHU216HW,2013-03-13 11:28:00,
2013-03-13 07:30:00,29.9,24.5,30.02,West,270,0.0,0.0,80,0.00,,,0.00,WUHU216HW,2013-03-13 11:30:00,
2013-03-13 07:31:00,29.9,24.5,30.02,West,270,0.0,0.0,80,0.00,,,0.00,WUHU216HW,2013-03-13 11:31:00,
2013-03-13 07:32:00,29.9,24.5,30.02,West,270,0.0,0.0,80,0.00,,,0.00,WUHU216HW,2013-03-13 11:32:00,
2013-03-13 07:34:00,29.9,24.8,30.02,West,270,0.0,0.0,81,0.00,,,0.00,WUHU216HW,2013-03-13 11:34:00,
2013-03-13 07:35:00,29.9,24.8,30.02,West,270,0.0,0.0,81,0.00,,,0.00,WUHU216HW,2013-03-13 11:35:00,
2013-03-13 07:36:00,29.9,24.8,30.02,West,270,0.0,0.0,81,0.00,,,0.00,WUHU216HW,2013-03-13 11:36:00,
2013-03-13 07:38:00,29.9,24.8,30.02,West,270,0.0,0.0,81,0.00,,,0.00,WUHU216HW,2013-03-13 11:38:00,
2013-03-13 07:39:00,29.9,24.8,30.02,West,270,0.0,0.0,81,0.00,,,0.00,WUHU216HW,2013-03-13 11:39:00,
2013-03-13 07:40:00,29.7,24.6,30.02,West,270,0.0,0.0,81,0.00,,,0.00,WUHU216HW,2013-03-13 11:40:00,
2013-03-13 07:43:00,29.7,24.6,30.02,West,270,0.0,0.0,81,0.00,,,0.00,WUHU216HW,2013-03-13 11:43:00,
2013-03-13 07:45:00,29.5,24.4,30.02,South,169,0.7,0.9,81,0.00,,,0.00,WUHU216HW,2013-03-13 11:45:00,
2013-03-13 07:48:00,29.5,24.4,30.02,SE,135,0.6,1.1,81,0.00,,,0.00,WUHU216HW,2013-03-13 11:48:00,
2013-03-13 07:49:00,29.5,24.4,30.02,SE,135,0.7,1.1,81,0.00,,,0.00,WUHU216HW,2013-03-13 11:49:00,
2013-03-13 07:52:00,29.5,24.4,30.02,ESE,109,1.0,1.3,81,0.00,,,0.00,WUHU216HW,2013-03-13 11:52:00,
2013-03-13 07:54:00,29.5,24.4,30.02,East,83,0.6,1.3,81,0.00,,,0.00,WUHU216HW,2013-03-13 11:54:00,
2013-03-13 07:58:00,29.7,24.6,30.02,ENE,68,0.0,1.3,81,0.00,,,0.00,WUHU216HW,2013-03-13 11:58:00,
2013-03-13 07:59:00,29.7,24.6,30.02,East,90,0.0,1.3,81,0.00,,,0.00,WUHU216HW,2013-03-13 11:59:00,
2013-03-13 08:00:00,29.5,24.4,30.02,East,90,0.0,1.3,81,0.00,,,0.00,WUHU216HW,2013-03-13 12:00:00,
2013-03-13 08:03:00,29.7,24.6,30.02,East,90,0.0,0.0,81,0.00,,,0.00,WUHU216HW,2013-03-13 12:03:00,
2013-03-13 08:04:00,29.7,24.6,30.02,East,90,0.0,0.0,81,0.00,,,0.00,WUHU216HW,2013-03-13 12:04:00,
2013-03-13 08:06:00,29.9,24.8,30.02,East,90,0.0,0.0,81,0.00,,,0.00,WUHU216HW,2013-03-13 12:06:00,
2013-03-13 08:08:00,29.7,24.6,30.02,East,90,0.0,0.0,81,0.00,,,0.00,WUHU216HW,2013-03-13 12:08:00,
2013-03-13 08:10:00,29.7,24.6,30.02,East,90,0.0,0.0,81,0.00,,,0.00,WUHU216HW,2013-03-13 12:10:00,
2013-03-13 08:11:00,29.7,24.6,30.03,East,90,0.0,0.0,81,0.00,,,0.00,WUHU216HW,2013-03-13 12:11:00,
2013-03-13 08:13:00,29.9,24.8,30.03,East,90,0.0,0.0,81,0.00,,,0.00,WUHU216HW,2013-03-13 12:13:00,
2013-03-13 08:14:00,29.7,24.6,30.03,East,90,0.0,0.0,81,0.00,,,0.00,WUHU216HW,2013-03-13 12:14:00,
2013-03-13 08:15:00,29.9,24.8,30.03,East,90,0.0,0.0,81,0.00,,,0.00,WUHU216HW,2013-03-13 12:15:00,
2013-03-13 08:16:00,29.7,24.6,30.03,East,90,0.0,0.0,81,0.00,,,0.00,WUHU216HW,2013-03-13 12:16:00,
2013-03-13 08:18:00,29.7,24.6,30.03,SW,225,0.0,0.0,81,0.00,,,0.00,WUHU216HW,2013-03-13 12:18:00,
2013-03-13 08:19:00,29.9,24.8,30.03,SW,225,0.0,0.0,81,0.00,,,0.00,WUHU216HW,2013-03-13 12:19:00,
2013-03-13 08:21:00,29.9,25.0,30.03,ESE,113,0.0,0.0,82,0.00,,,0.00,WUHU216HW,2013-03-13 12:21:00,
2013-03-13 08:22:00,29.9,25.0,30.03,ESE,113,0.0,0.0,82,0.00,,,0.00,WUHU216HW,2013-03-13 12:22:00,
2013-03-13 08:23:00,30.1,25.2,30.03,SE,135,0.2,0.2,82,0.00,,,0.00,WUHU216HW,2013-03-13 12:23:00,
2013-03-13 08:24:00,30.1,25.2,30.03,SE,135,0.2,0.2,82,0.00,,,0.00,WUHU216HW,2013-03-13 12:24:00,
2013-03-13 08:28:00,30.4,25.6,30.03,ESE,113,1.1,1.3,82,0.00,,,0.00,WUHU216HW,2013-03-13 12:28:00,
2013-03-13 08:29:00,30.4,25.6,30.03,ESE,102,0.9,1.3,82,0.00,,,0.00,WUHU216HW,2013-03-13 12:29:00,
2013-03-13 08:30:00,30.6,25.7,30.03,ESE,113,1.1,1.3,82,0.00,,,0.00,WUHU216HW,2013-03-13 12:30:00,
2013-03-13 08:34:00,31.0,26.1,30.03,ESE,113,1.3,1.6,82,0.00,,,0.00,WUHU216HW,2013-03-13 12:34:00,
2013-03-13 08:35:00,31.1,26.3,30.03,ESE,113,1.3,1.6,82,0.00,,,0.00,WUHU216HW,2013-03-13 12:35:00,
2013-03-13 08:39:00,31.3,26.5,30.03,SE,135,0.5,1.6,82,0.00,,,0.00,WUHU216HW,2013-03-13 12:39:00,
2013-03-13 08:40:00,31.5,26.6,30.03,SE,135,0.4,1.6,82,0.00,,,0.00,WUHU216HW,2013-03-13 12:40:00,
2013-03-13 08:41:00,31.7,26.8,30.04,SE,135,0.0,1.6,82,0.00,,,0.00,WUHU216HW,2013-03-13 12:41:00,
2013-03-13 08:44:00,31.9,27.0,30.04,SE,135,0.0,1.3,82,0.00,,,0.00,WUHU216HW,2013-03-13 12:44:00,
2013-03-13 08:45:00,32.0,27.2,30.04,SE,135,0.0,1.3,82,0.00,,,0.00,WUHU216HW,2013-03-13 12:45:00,
2013-03-13 08:46:00,32.0,27.2,30.04,SE,135,0.0,1.3,82,0.00,,,0.00,WUHU216HW,2013-03-13 12:46:00,
2013-03-13 08:47:00,32.2,27.4,30.04,SE,135,0.0,1.1,82,0.00,,,0.00,WUHU216HW,2013-03-13 12:47:00,
2013-03-13 08:50:00,32.8,27.5,30.04,SE,135,0.0,0.0,81,0.00,,,0.00,WUHU216HW,2013-03-13 12:50:00,
2013-03-13 08:51:00,32.9,27.7,30.04,SE,135,0.0,0.0,81,0.00,,,0.00,WUHU216HW,2013-03-13 12:51:00,
2013-03-13 08:52:00,33.1,27.9,30.04,SE,135,0.0,0.0,81,0.00,,,0.00,WUHU216HW,2013-03-13 12:52:00,
2013-03-13 08:55:00,33.5,28.3,30.04,ESE,113,0.0,0.0,81,0.00,,,0.00,WUHU216HW,2013-03-13 12:55:00,
2013-03-13 08:56:00,33.8,28.5,30.04,ESE,113,0.0,0.0,81,0.00,,,0.00,WUHU216HW,2013-03-13 12:56:00,
2013-03-13 08:57:00,33.8,28.8,30.04,ESE,113,0.0,0.0,82,0.00,,,0.00,WUHU216HW,2013-03-13 12:57:00,
2013-03-13 08:58:00,33.8,28.8,30.04,ESE,113,0.0,0.0,82,0.00,,,0.00,WUHU216HW,2013-03-13 12:58:00,
2013-03-13 09:01:00,34.2,28.9,30.05,SW,225,0.0,0.0,81,0.00,,,0.00,WUHU216HW,2013-03-13 13:01:00,
2013-03-13 09:02:00,34.4,29.1,30.05,SW,225,0.0,0.0,81,0.00,,,0.00,WUHU216HW,2013-03-13 13:02:00,
2013-03-13 09:03:00,34.7,29.7,30.05,SW,225,0.0,0.0,82,0.00,,,0.00,WUHU216HW,2013-03-13 13:03:00,
2013-03-13 09:07:00,35.5,30.4,30.05,SE,135,0.0,0.0,82,0.00,,,0.00,WUHU216HW,2013-03-13 13:07:00,
2013-03-13 09:08:00,35.6,30.3,30.05,SE,135,0.2,0.2,81,0.00,,,0.00,WUHU216HW,2013-03-13 13:08:00,
2013-03-13 09:09:00,35.8,30.8,30.05,SE,135,0.2,0.2,82,0.00,,,0.00,WUHU216HW,2013-03-13 13:09:00,
2013-03-13 09:12:00,36.5,31.2,30.05,ESE,113,1.3,1.3,81,0.00,,,0.00,WUHU216HW,2013-03-13 13:12:00,
2013-03-13 09:13:00,36.7,31.4,30.05,ESE,113,1.0,1.3,81,0.00,,,0.00,WUHU216HW,2013-03-13 13:13:00,
2013-03-13 09:14:00,37.1,31.5,30.05,ESE,113,0.8,1.3,80,0.00,,,0.00,WUHU216HW,2013-03-13 13:14:00,
2013-03-13 09:18:00,37.6,32.0,30.05,East,90,0.7,1.3,80,0.00,,,0.00,WUHU216HW,2013-03-13 13:18:00,
2013-03-13 09:19:00,37.8,32.2,30.05,East,92,0.6,1.3,80,0.00,,,0.00,WUHU216HW,2013-03-13 13:19:00,
2013-03-13 09:20:00,38.0,32.4,30.05,East,90,0.6,1.3,80,0.00,,,0.00,WUHU216HW,2013-03-13 13:20:00,
2013-03-13 09:24:00,38.5,32.9,30.05,East,90,0.4,1.1,80,0.00,,,0.00,WUHU216HW,2013-03-13 13:24:00,
2013-03-13 09:25:00,38.7,32.8,30.05,East,90,0.4,1.1,79,0.00,,,0.00,WUHU216HW,2013-03-13 13:25:00,
2013-03-13 09:26:00,38.9,32.9,30.05,East,90,0.4,1.1,79,0.00,,,0.00,WUHU216HW,2013-03-13 13:26:00,
2013-03-13 09:29:00,39.8,33.9,30.05,NNW,338,0.9,0.9,79,0.00,,,0.00,WUHU216HW,2013-03-13 13:29:00,
2013-03-13 09:31:00,40.0,33.3,30.06,NNW,328,0.7,1.6,77,0.00,,,0.00,WUHU216HW,2013-03-13 13:31:00,
2013-03-13 09:32:00,40.3,33.3,30.06,NW,315,1.8,1.8,76,0.00,,,0.00,WUHU216HW,2013-03-13 13:32:00,
2013-03-13 09:34:00,41.0,33.7,30.06,NW,305,1.7,2.7,75,0.00,,,0.00,WUHU216HW,2013-03-13 13:34:00,
2013-03-13 09:36:00,41.2,33.5,30.06,NW,326,1.9,3.4,74,0.00,,,0.00,WUHU216HW,2013-03-13 13:36:00,
2013-03-13 09:37:00,41.4,32.4,30.06,WNW,293,2.7,3.4,70,0.00,,,0.00,WUHU216HW,2013-03-13 13:37:00,
2013-03-13 09:38:00,41.4,32.1,30.06,WNW,293,3.8,3.8,69,0.00,,,0.00,WUHU216HW,2013-03-13 13:38:00,
2013-03-13 09:40:00,41.6,31.8,30.06,NW,309,3.9,6.9,68,0.00,,,0.00,WUHU216HW,2013-03-13 13:40:00,
2013-03-13 09:42:00,41.8,32.0,30.06,WNW,293,1.8,6.9,68,0.00,,,0.00,WUHU216HW,2013-03-13 13:42:00,
2013-03-13 09:43:00,41.9,31.8,30.06,NW,315,4.7,6.9,67,0.00,,,0.00,WUHU216HW,2013-03-13 13:43:00,
2013-03-13 09:45:00,42.1,32.3,30.06,NW,309,2.7,6.9,68,0.00,,,0.00,WUHU216HW,2013-03-13 13:45:00,
2013-03-13 09:48:00,42.5,32.3,30.06,WNW,293,3.4,6.9,67,0.00,,,0.00,WUHU216HW,2013-03-13 13:48:00,
2013-03-13 09:49:00,42.5,32.3,30.06,NW,322,3.7,4.9,67,0.00,,,0.00,WUHU216HW,2013-03-13 13:49:00,
2013-03-13 09:50:00,42.7,32.9,30.06,NW,315,2.5,4.9,68,0.00,,,0.00,WUHU216HW,2013-03-13 13:50:00,
2013-03-13 09:53:00,42.8,32.7,30.06,NNW,337,2.2,4.9,67,0.00,,,0.00,WUHU216HW,2013-03-13 13:53:00,
2013-03-13 09:54:00,42.8,32.7,30.06,North,0,4.0,4.9,67,0.00,,,0.00,WUHU216HW,2013-03-13 13:54:00,
2013-03-13 09:58:00,43.0,32.4,30.06,NW,315,2.5,6.3,66,0.00,,,0.00,WUHU216HW,2013-03-13 13:58:00,
2013-03-13 09:59:00,43.0,32.9,30.06,NNW,343,2.0,6.3,67,0.00,,,0.00,WUHU216HW,2013-03-13 13:59:00,
2013-03-13 10:00:00,43.2,32.2,30.06,NNW,338,3.4,6.3,65,0.00,,,0.00,WUHU216HW,2013-03-13 14:00:00,
2013-03-13 10:04:00,43.4,31.6,30.06,NNW,337,2.2,6.3,63,0.00,,,0.00,WUHU216HW,2013-03-13 14:04:00,
2013-03-13 10:05:00,43.6,32.1,30.06,NNW,338,2.2,6.3,64,0.00,,,0.00,WUHU216HW,2013-03-13 14:05:00,
2013-03-13 10:09:00,43.7,32.0,30.07,North,353,2.6,6.9,63,0.00,,,0.00,WUHU216HW,2013-03-13 14:09:00,
2013-03-13 10:10:00,43.7,32.0,30.07,WNW,293,3.4,6.9,63,0.00,,,0.00,WUHU216HW,2013-03-13 14:10:00,
2013-03-13 10:11:00,43.9,32.5,30.07,NW,308,2.8,6.9,64,0.00,,,0.00,WUHU216HW,2013-03-13 14:11:00,
2013-03-13 10:15:00,44.5,32.7,30.07,NNW,338,4.7,6.9,63,0.00,,,0.00,WUHU216HW,2013-03-13 14:15:00,
2013-03-13 10:16:00,44.5,32.2,30.07,NNW,336,3.0,6.9,62,0.00,,,0.00,WUHU216HW,2013-03-13 14:16:00,
2013-03-13 10:20:00,44.8,32.6,30.07,NNE,23,4.0,5.4,62,0.00,,,0.00,WUHU216HW,2013-03-13 14:20:00,
2013-03-13 10:21:00,44.8,32.6,30.07,North,8,3.0,5.4,62,0.00,,,0.00,WUHU216HW,2013-03-13 14:21:00,
2013-03-13 10:25:00,45.0,32.1,30.07,NW,315,5.8,5.8,60,0.00,,,0.00,WUHU216HW,2013-03-13 14:25:00,
2013-03-13 10:26:00,45.0,31.6,30.07,NNW,338,3.9,5.8,59,0.00,,,0.00,WUHU216HW,2013-03-13 14:26:00,
2013-03-13 10:27:00,45.0,31.6,30.07,WNW,293,3.1,5.8,59,0.00,,,0.00,WUHU216HW,2013-03-13 14:27:00,
2013-03-13 10:30:00,45.0,31.2,30.07,NW,315,8.5,8.5,58,0.00,,,0.00,WUHU216HW,2013-03-13 14:30:00,
2013-03-13 10:31:00,45.0,30.7,30.07,NW,322,4.6,8.5,57,0.00,,,0.00,WUHU216HW,2013-03-13 14:31:00,
2013-03-13 10:33:00,45.0,31.6,30.07,West,270,5.4,8.5,59,0.00,,,0.00,WUHU216HW,2013-03-13 14:33:00,
2013-03-13 10:37:00,45.0,31.2,30.07,NNW,342,4.1,8.5,58,0.00,,,0.00,WUHU216HW,2013-03-13 14:37:00,
2013-03-13 10:38:00,45.0,31.2,30.07,North,0,5.8,8.5,58,0.00,,,0.00,WUHU216HW,2013-03-13 14:38:00,
2013-03-13 10:43:00,45.2,30.8,30.07,WNW,287,5.5,8.5,57,0.00,,,0.00,WUHU216HW,2013-03-13 14:43:00,
2013-03-13 10:44:00,45.4,31.0,30.07,NW,308,4.1,8.5,57,0.00,,,0.00,WUHU216HW,2013-03-13 14:44:00,
2013-03-13 10:49:00,46.1,32.0,30.07,North,0,2.5,8.5,58,0.00,,,0.00,WUHU216HW,2013-03-13 14:49:00,
2013-03-13 10:54:00,46.3,31.8,30.08,NW,315,4.0,6.9,57,0.00,,,0.00,WUHU216HW,2013-03-13 14:54:00,
2013-03-13 10:55:00,46.3,30.9,30.08,NNW,338,6.3,6.9,55,0.00,,,0.00,WUHU216HW,2013-03-13 14:55:00,
2013-03-13 10:59:00,45.4,29.6,30.08,North,0,7.6,9.2,54,0.00,,,0.00,WUHU216HW,2013-03-13 14:59:00,
2013-03-13 11:00:00,45.2,29.9,30.08,NNW,335,4.6,9.2,55,0.00,,,0.00,WUHU216HW,2013-03-13 15:00:00,
2013-03-13 11:05:00,45.7,30.9,30.08,West,270,4.7,9.2,56,0.00,,,0.00,WUHU216HW,2013-03-13 15:05:00,
2013-03-13 11:10:00,46.3,29.5,30.08,NW,318,5.2,7.8,52,0.00,,,0.00,WUHU216HW,2013-03-13 15:10:00,
2013-03-13 11:11:00,46.4,30.2,30.08,NNW,327,4.4,7.8,53,0.00,,,0.00,WUHU216HW,2013-03-13 15:11:00,
2013-03-13 11:15:00,46.8,30.1,30.08,West,279,5.1,7.8,52,0.00,,,0.00,WUHU216HW,2013-03-13 15:15:00,
2013-03-13 11:16:00,46.8,30.1,30.08,West,280,5.0,7.8,52,0.00,,,0.00,WUHU216HW,2013-03-13 15:16:00,
2013-03-13 11:21:00,47.3,29.1,30.08,West,267,4.0,8.3,49,0.00,,,0.00,WUHU216HW,2013-03-13 15:21:00,
2013-03-13 11:22:00,47.5,29.8,30.08,NW,321,4.1,8.3,50,0.00,,,0.00,WUHU216HW,2013-03-13 15:22:00,
2013-03-13 11:23:00,47.5,28.2,30.08,ENE,68,5.4,8.3,47,0.00,,,0.00,WUHU216HW,2013-03-13 15:23:00,
2013-03-13 11:26:00,47.3,26.9,30.08,NNW,329,6.0,9.6,45,0.00,,,0.00,WUHU216HW,2013-03-13 15:26:00,
2013-03-13 11:27:00,47.3,26.9,30.08,NNW,328,6.0,9.6,45,0.00,,,0.00,WUHU216HW,2013-03-13 15:27:00,
2013-03-13 11:28:00,47.2,26.2,30.08,NW,315,6.7,9.6,44,0.00,,,0.00,WUHU216HW,2013-03-13 15:28:00,
2013-03-13 11:32:00,47.0,26.6,30.08,NW,324,4.2,9.6,45,0.00,,,0.00,WUHU216HW,2013-03-13 15:32:00,
2013-03-13 11:33:00,47.0,25.5,30.08,NNW,338,4.9,9.6,43,0.00,,,0.00,WUHU216HW,2013-03-13 15:33:00,
2013-03-13 11:34:00,47.0,26.6,30.08,NNW,338,4.0,9.6,45,0.00,,,0.00,WUHU216HW,2013-03-13 15:34:00,
2013-03-13 11:37:00,47.2,25.1,30.08,NNE,29,6.4,10.3,42,0.00,,,0.00,WUHU216HW,2013-03-13 15:37:00,
2013-03-13 11:38:00,47.2,26.2,30.09,NNE,27,7.0,10.3,44,0.00,,,0.00,WUHU216HW,2013-03-13 15:38:00,
2013-03-13 11:39:00,47.0,24.9,30.09,NNW,335,7.6,12.1,42,0.00,,,0.00,WUHU216HW,2013-03-13 15:39:00,
2013-03-13 11:40:00,46.8,25.4,30.09,NNW,338,7.6,12.1,43,0.00,,,0.00,WUHU216HW,2013-03-13 15:40:00,
2013-03-13 11:43:00,46.6,25.2,30.09,NNW,339,6.4,12.1,43,0.00,,,0.00,WUHU216HW,2013-03-13 15:43:00,
2013-03-13 11:44:00,46.6,24.7,30.09,NNW,331,6.8,12.1,42,0.00,,,0.00,WUHU216HW,2013-03-13 15:44:00,
2013-03-13 11:45:00,46.4,25.0,30.09,NNW,331,6.7,12.1,43,0.00,,,0.00,WUHU216HW,2013-03-13 15:45:00,
2013-03-13 11:48:00,46.8,27.0,30.09,WNW,293,3.4,8.9,46,0.00,,,0.00,WUHU216HW,2013-03-13 15:48:00,
2013-03-13 11:50:00,47.0,26.0,30.09,North,0,5.4,8.9,44,0.00,,,0.00,WUHU216HW,2013-03-13 15:50:00,
2013-03-13 11:55:00,47.5,27.1,30.09,NW,320,4.2,8.7,45,0.00,,,0.00,WUHU216HW,2013-03-13 15:55:00,
2013-03-13 12:00:00,47.9,26.8,30.09,WNW,302,5.2,10.7,44,0.00,,,0.00,WUHU216HW,2013-03-13 16:00:00,
2013-03-13 12:01:00,47.9,27.4,30.09,WNW,286,5.1,10.7,45,0.00,,,0.00,WUHU216HW,2013-03-13 16:01:00,
2013-03-13 12:06:00,47.9,25.7,30.09,NNW,338,6.5,10.7,42,0.00,,,0.00,WUHU216HW,2013-03-13 16:06:00,
2013-03-13 12:07:00,47.9,25.7,30.09,NNW,335,5.4,10.7,42,0.00,,,0.00,WUHU216HW,2013-03-13 16:07:00,
2013-03-13 12:11:00,47.9,26.3,30.09,NNW,338,5.4,8.7,43,0.00,,,0.00,WUHU216HW,2013-03-13 16:11:00,
2013-03-13 12:12:00,47.9,26.3,30.09,NNW,338,5.4,8.7,43,0.00,,,0.00,WUHU216HW,2013-03-13 16:12:00,
2013-03-13 12:13:00,47.9,26.3,30.09,NNW,332,6.9,9.8,43,0.00,,,0.00,WUHU216HW,2013-03-13 16:13:00,
2013-03-13 12:17:00,48.4,26.8,30.09,NNW,338,7.6,9.8,43,0.00,,,0.00,WUHU216HW,2013-03-13 16:17:00,
2013-03-13 12:18:00,48.4,26.3,30.09,NNW,333,6.2,9.8,42,0.00,,,0.00,WUHU216HW,2013-03-13 16:18:00,
2013-03-13 12:22:00,48.2,26.6,30.09,NW,315,4.7,9.8,43,0.00,,,0.00,WUHU216HW,2013-03-13 16:22:00,
2013-03-13 12:23:00,48.2,26.6,30.09,NNW,329,5.5,8.9,43,0.00,,,0.00,WUHU216HW,2013-03-13 16:23:00,
2013-03-13 12:28:00,48.2,27.2,30.09,WNW,293,4.7,8.9,44,0.00,,,0.00,WUHU216HW,2013-03-13 16:28:00,
2013-03-13 12:29:00,48.4,27.4,30.09,NW,313,3.9,8.9,44,0.00,,,0.00,WUHU216HW,2013-03-13 16:29:00,
2013-03-13 12:33:00,48.6,26.5,30.09,NW,326,5.3,7.2,42,0.00,,,0.00,WUHU216HW,2013-03-13 16:33:00,
2013-03-13 12:34:00,48.4,25.2,30.09,NW,325,6.1,8.5,40,0.00,,,0.00,WUHU216HW,2013-03-13 16:34:00,
2013-03-13 12:35:00,48.2,25.0,30.09,NW,324,4.8,8.5,40,0.00,,,0.00,WUHU216HW,2013-03-13 16:35:00,
2013-03-13 12:38:00,47.5,24.9,30.09,NW,322,4.9,8.5,41,0.00,,,0.00,WUHU216HW,2013-03-13 16:38:00,
2013-03-13 12:39:00,47.5,25.5,30.09,NW,321,3.8,8.5,42,0.00,,,0.00,WUHU216HW,2013-03-13 16:39:00,
2013-03-13 12:40:00,47.5,26.6,30.09,NW,319,3.3,8.5,44,0.00,,,0.00,WUHU216HW,2013-03-13 16:40:00,
2013-03-13 12:43:00,48.1,26.5,30.09,NW,315,5.8,8.5,43,0.00,,,0.00,WUHU216HW,2013-03-13 16:43:00,
2013-03-13 12:44:00,48.2,26.6,30.09,NW,304,4.5,6.7,43,0.00,,,0.00,WUHU216HW,2013-03-13 16:44:00,
2013-03-13 12:45:00,48.4,26.3,30.09,West,273,4.5,6.7,42,0.00,,,0.00,WUHU216HW,2013-03-13 16:45:00,
2013-03-13 12:48:00,48.6,25.4,30.09,NNW,338,5.4,8.7,40,0.00,,,0.00,WUHU216HW,2013-03-13 16:48:00,
2013-03-13 12:50:00,48.6,25.4,30.09,NNW,338,4.9,8.7,40,0.00,,,0.00,WUHU216HW,2013-03-13 16:50:00,
2013-03-13 12:51:00,48.6,25.9,30.09,NW,315,4.2,8.7,41,0.00,,,0.00,WUHU216HW,2013-03-13 16:51:00,
2013-03-13 12:52:00,48.6,25.9,30.09,NW,315,7.8,8.7,41,0.00,,,0.00,WUHU216HW,2013-03-13 16:52:00,
2013-03-13 12:54:00,48.6,24.7,30.09,NW,319,7.0,8.7,39,0.00,,,0.00,WUHU216HW,2013-03-13 16:54:00,
2013-03-13 12:55:00,48.6,24.0,30.09,NNW,331,5.8,8.7,38,0.00,,,0.00,WUHU216HW,2013-03-13 16:55:00,
2013-03-13 12:57:00,48.6,25.9,30.09,WNW,300,2.6,8.1,41,0.00,,,0.00,WUHU216HW,2013-03-13 16:57:00,
2013-03-13 12:59:00,49.0,27.3,30.09,WNW,290,5.0,8.1,43,0.00,,,0.00,WUHU216HW,2013-03-13 16:59:00,
2013-03-13 13:00:00,49.3,27.6,30.09,West,270,5.4,8.1,43,0.00,,,0.00,WUHU216HW,2013-03-13 17:00:00,
2013-03-13 13:03:00,50.0,28.4,30.09,WNW,293,3.6,7.6,43,0.00,,,0.00,WUHU216HW,2013-03-13 17:03:00,
2013-03-13 13:04:00,50.0,27.7,30.09,WNW,293,8.9,8.9,42,0.00,,,0.00,WUHU216HW,2013-03-13 17:04:00,
2013-03-13 13:05:00,50.2,26.1,30.09,West,270,7.4,9.8,39,0.00,,,0.00,WUHU216HW,2013-03-13 17:05:00,
2013-03-13 13:06:00,50.0,25.9,30.09,WNW,302,6.9,10.7,39,0.00,,,0.00,WUHU216HW,2013-03-13 17:06:00,
2013-03-13 13:09:00,49.9,25.1,30.09,WSW,248,5.6,10.7,38,0.00,,,0.00,WUHU216HW,2013-03-13 17:09:00,
2013-03-13 13:10:00,49.7,26.3,30.09,West,281,4.9,10.7,40,0.00,,,0.00,WUHU216HW,2013-03-13 17:10:00,
2013-03-13 13:11:00,49.7,26.9,30.09,NW,315,2.9,10.7,41,0.00,,,0.00,WUHU216HW,2013-03-13 17:11:00,
2013-03-13 13:14:00,50.0,25.9,30.09,NNE,23,6.3,10.7,39,0.00,,,0.00,WUHU216HW,2013-03-13 17:14:00,
2013-03-13 13:15:00,50.0,25.9,30.09,NE,45,6.3,10.7,39,0.00,,,0.00,WUHU216HW,2013-03-13 17:15:00,
2013-03-13 13:16:00,49.7,25.7,30.09,WNW,293,6.9,9.2,39,0.00,,,0.00,WUHU216HW,2013-03-13 17:16:00,
2013-03-13 13:17:00,49.7,25.7,30.09,NNW,333,6.2,9.2,39,0.00,,,0.00,WUHU216HW,2013-03-13 17:17:00,
2013-03-13 13:20:00,49.3,25.3,30.08,NNW,338,10.7,10.7,39,0.00,,,0.00,WUHU216HW,2013-03-13 17:20:00,
2013-03-13 13:21:00,49.3,25.3,30.08,NNW,345,6.3,10.7,39,0.00,,,0.00,WUHU216HW,2013-03-13 17:21:00,
2013-03-13 13:22:00,49.3,25.3,30.09,NNW,330,7.4,10.7,39,0.00,,,0.00,WUHU216HW,2013-03-13 17:22:00,
2013-03-13 13:26:00,49.0,24.3,30.08,NNW,338,7.2,10.7,38,0.00,,,0.00,WUHU216HW,2013-03-13 17:26:00,
2013-03-13 13:27:00,49.0,25.0,30.08,WNW,293,8.7,10.7,39,0.00,,,0.00,WUHU216HW,2013-03-13 17:27:00,
2013-03-13 13:28:00,48.8,24.9,30.08,NW,314,5.0,10.7,39,0.00,,,0.00,WUHU216HW,2013-03-13 17:28:00,
2013-03-13 13:32:00,49.3,26.0,30.08,NNW,338,5.8,9.8,40,0.00,,,0.00,WUHU216HW,2013-03-13 17:32:00,
2013-03-13 13:34:00,49.3,25.3,30.08,North,358,6.1,8.7,39,0.00,,,0.00,WUHU216HW,2013-03-13 17:34:00,
2013-03-13 13:37:00,49.7,26.9,30.08,West,262,3.3,8.3,41,0.00,,,0.00,WUHU216HW,2013-03-13 17:37:00,
2013-03-13 13:38:00,49.7,26.9,30.08,NW,315,3.6,8.3,41,0.00,,,0.00,WUHU216HW,2013-03-13 17:38:00,
2013-03-13 13:39:00,50.0,26.6,30.08,NW,315,6.5,8.3,40,0.00,,,0.00,WUHU216HW,2013-03-13 17:39:00,
2013-03-13 13:42:00,50.4,27.6,30.08,NNW,344,4.1,8.3,41,0.00,,,0.00,WUHU216HW,2013-03-13 17:42:00,
2013-03-13 13:43:00,50.6,27.1,30.08,NNW,338,6.0,8.3,40,0.00,,,0.00,WUHU216HW,2013-03-13 17:43:00,
2013-03-13 13:44:00,50.6,27.1,30.08,NNW,344,5.2,9.2,40,0.00,,,0.00,WUHU216HW,2013-03-13 17:44:00,
2013-03-13 13:45:00,50.6,27.7,30.08,NNW,335,5.3,9.2,41,0.00,,,0.00,WUHU216HW,2013-03-13 17:45:00,
2013-03-13 13:47:00,50.4,27.6,30.08,NNW,344,4.8,9.2,41,0.00,,,0.00,WUHU216HW,2013-03-13 17:47:00,
2013-03-13 13:48:00,50.4,25.6,30.08,NW,315,5.8,9.2,38,0.00,,,0.00,WUHU216HW,2013-03-13 17:48:00,
2013-03-13 13:49:00,50.4,26.3,30.08,NNW,335,4.7,9.2,39,0.00,,,0.00,WUHU216HW,2013-03-13 17:49:00,
2013-03-13 13:52:00,50.6,27.1,30.08,NNW,338,5.4,9.2,40,0.00,,,0.00,WUHU216HW,2013-03-13 17:52:00,
2013-03-13 13:53:00,50.6,27.1,30.08,NNW,338,4.7,9.2,40,0.00,,,0.00,WUHU216HW,2013-03-13 17:53:00,
2013-03-13 13:54:00,50.6,27.7,30.08,NNW,338,5.8,8.3,41,0.00,,,0.00,WUHU216HW,2013-03-13 17:54:00,
2013-03-13 13:58:00,51.1,26.9,30.07,NW,315,4.9,13.2,39,0.00,,,0.00,WUHU216HW,2013-03-13 17:58:00,
2013-03-13 13:59:00,50.9,27.5,30.08,NNW,330,7.2,13.2,40,0.00,,,0.00,WUHU216HW,2013-03-13 17:59:00,
2013-03-13 14:01:00,50.8,26.7,30.07,NNW,338,7.2,13.2,39,0.00,,,0.00,WUHU216HW,2013-03-13 18:01:00,
2013-03-13 14:03:00,50.6,27.1,30.07,NNW,338,5.4,13.2,40,0.00,,,0.00,WUHU216HW,2013-03-13 18:03:00,
2013-03-13 14:04:00,50.4,27.0,30.07,WNW,293,4.7,13.2,40,0.00,,,0.00,WUHU216HW,2013-03-13 18:04:00,
2013-03-13 14:05:00,50.4,26.3,30.07,NNW,336,4.6,13.2,39,0.00,,,0.00,WUHU216HW,2013-03-13 18:05:00,
2013-03-13 14:08:00,50.0,27.2,30.07,North,351,4.0,10.1,41,0.00,,,0.00,WUHU216HW,2013-03-13 18:08:00,
2013-03-13 14:09:00,50.0,25.9,30.07,WNW,293,9.2,9.2,39,0.00,,,0.00,WUHU216HW,2013-03-13 18:09:00,
2013-03-13 14:10:00,50.0,25.9,30.07,North,0,5.8,9.2,39,0.00,,,0.00,WUHU216HW,2013-03-13 18:10:00,
2013-03-13 14:14:00,50.6,28.3,30.07,NW,315,3.6,9.2,42,0.00,,,0.00,WUHU216HW,2013-03-13 18:14:00,
2013-03-13 14:15:00,50.8,27.8,30.07,NNW,328,3.6,9.2,41,0.00,,,0.00,WUHU216HW,2013-03-13 18:15:00,
2013-03-13 14:17:00,50.8,28.5,30.07,SW,225,4.0,9.2,42,0.00,,,0.00,WUHU216HW,2013-03-13 18:17:00,
2013-03-13 14:19:00,51.1,28.2,30.07,NW,320,3.1,7.8,41,0.00,,,0.00,WUHU216HW,2013-03-13 18:19:00,
2013-03-13 14:20:00,51.3,28.9,30.07,NNW,329,2.9,7.8,42,0.00,,,0.00,WUHU216HW,2013-03-13 18:20:00,
2013-03-13 14:23:00,51.7,28.6,30.07,NW,321,4.8,6.9,41,0.00,,,0.00,WUHU216HW,2013-03-13 18:23:00,
2013-03-13 14:24:00,51.7,27.5,30.07,North,0,6.0,6.9,39,0.00,,,0.00,WUHU216HW,2013-03-13 18:24:00,
2013-03-13 14:25:00,51.5,28.5,30.07,North,355,4.7,6.9,41,0.00,,,0.00,WUHU216HW,2013-03-13 18:25:00,
2013-03-13 14:28:00,51.5,27.3,30.07,NNW,328,4.6,6.9,39,0.00,,,0.00,WUHU216HW,2013-03-13 18:28:00,
2013-03-13 14:30:00,51.3,27.1,30.07,NW,317,5.9,9.2,39,0.00,,,0.00,WUHU216HW,2013-03-13 18:30:00,
2013-03-13 14:31:00,51.5,27.3,30.07,NW,309,5.0,9.2,39,0.00,,,0.00,WUHU216HW,2013-03-13 18:31:00,
2013-03-13 14:33:00,51.3,25.8,30.07,West,272,7.3,9.8,37,0.00,,,0.00,WUHU216HW,2013-03-13 18:33:00,
2013-03-13 14:35:00,51.1,25.6,30.07,NW,315,4.5,9.8,37,0.00,,,0.00,WUHU216HW,2013-03-13 18:35:00,
2013-03-13 14:36:00,51.1,26.3,30.07,North,0,4.7,9.8,38,0.00,,,0.00,WUHU216HW,2013-03-13 18:36:00,
2013-03-13 14:38:00,51.1,25.6,30.07,NNW,338,7.6,9.8,37,0.00,,,0.00,WUHU216HW,2013-03-13 18:38:00,
2013-03-13 14:40:00,50.9,26.1,30.07,NW,326,4.6,9.8,38,0.00,,,0.00,WUHU216HW,2013-03-13 18:40:00,
2013-03-13 14:41:00,50.9,27.5,30.07,NNW,338,5.1,9.8,40,0.00,,,0.00,WUHU216HW,2013-03-13 18:41:00,
2013-03-13 14:43:00,51.1,26.9,30.07,NW,315,7.8,7.8,39,0.00,,,0.00,WUHU216HW,2013-03-13 18:43:00,
2013-03-13 14:45:00,51.1,26.9,30.07,NW,315,4.7,7.8,39,0.00,,,0.00,WUHU216HW,2013-03-13 18:45:00,
2013-03-13 14:46:00,51.1,26.3,30.07,North,0,4.5,8.1,38,0.00,,,0.00,WUHU216HW,2013-03-13 18:46:00,
2013-03-13 14:48:00,50.6,25.1,30.07,North,0,5.8,8.1,37,0.00,,,0.00,WUHU216HW,2013-03-13 18:48:00,
2013-03-13 14:51:00,50.0,25.9,30.06,NNW,338,8.3,8.3,39,0.00,,,0.00,WUHU216HW,2013-03-13 18:51:00,
2013-03-13 14:52:00,50.0,25.3,30.07,NW,313,6.5,8.3,38,0.00,,,0.00,WUHU216HW,2013-03-13 18:52:00,
2013-03-13 14:53:00,49.9,25.1,30.07,WNW,303,4.8,8.3,38,0.00,,,0.00,WUHU216HW,2013-03-13 18:53:00,
2013-03-13 14:55:00,49.9,25.1,30.07,NW,317,4.6,8.3,38,0.00,,,0.00,WUHU216HW,2013-03-13 18:55:00,
2013-03-13 14:57:00,50.0,25.9,30.07,WSW,248,3.6,8.3,39,0.00,,,0.00,WUHU216HW,2013-03-13 18:57:00,
2013-03-13 14:58:00,50.0,25.9,30.07,WSW,248,4.5,8.3,39,0.00,,,0.00,WUHU216HW,2013-03-13 18:58:00,
2013-03-13 14:59:00,50.2,27.4,30.06,NW,315,4.7,8.3,41,0.00,,,0.00,WUHU216HW,2013-03-13 18:59:00,
2013-03-13 15:01:00,50.8,27.8,30.07,NW,315,4.9,6.7,41,0.00,,,0.00,WUHU216HW,2013-03-13 19:01:00,
2013-03-13 15:03:00,50.9,26.7,30.07,WNW,299,3.9,6.3,39,0.00,,,0.00,WUHU216HW,2013-03-13 19:03:00,
2013-03-13 15:05:00,51.1,27.6,30.07,North,0,4.0,6.3,40,0.00,,,0.00,WUHU216HW,2013-03-13 19:05:00,
2013-03-13 15:06:00,51.5,27.9,30.06,West,270,5.8,6.3,40,0.00,,,0.00,WUHU216HW,2013-03-13 19:06:00,
2013-03-13 15:08:00,51.5,26.6,30.06,SW,225,8.1,9.6,38,0.00,,,0.00,WUHU216HW,2013-03-13 19:08:00,
2013-03-13 15:10:00,51.5,25.9,30.06,NNW,338,12.1,12.1,37,0.00,,,0.00,WUHU216HW,2013-03-13 19:10:00,
2013-03-13 15:12:00,51.1,24.8,30.06,NW,316,6.7,12.1,36,0.00,,,0.00,WUHU216HW,2013-03-13 19:12:00,
2013-03-13 15:13:00,50.9,26.7,30.06,NNW,338,6.3,12.1,39,0.00,,,0.00,WUHU216HW,2013-03-13 19:13:00,
2013-03-13 15:14:00,50.9,26.7,30.06,WNW,293,4.3,12.1,39,0.00,,,0.00,WUHU216HW,2013-03-13 19:14:00,
2013-03-13 15:15:00,50.9,26.7,30.06,WNW,293,7.6,12.1,39,0.00,,,0.00,WUHU216HW,2013-03-13 19:15:00,
2013-03-13 15:17:00,50.9,26.1,30.06,SSW,203,6.9,12.1,38,0.00,,,0.00,WUHU216HW,2013-03-13 19:17:00,
2013-03-13 15:19:00,50.8,25.2,30.06,NW,315,8.7,12.1,37,0.00,,,0.00,WUHU216HW,2013-03-13 19:19:00,
2013-03-13 15:20:00,50.6,25.7,30.06,WNW,293,7.8,12.1,38,0.00,,,0.00,WUHU216HW,2013-03-13 19:20:00,
2013-03-13 15:23:00,50.4,25.6,30.06,North,0,9.8,9.8,38,0.00,,,0.00,WUHU216HW,2013-03-13 19:23:00,
2013-03-13 15:24:00,50.4,25.6,30.06,NNE,23,6.3,9.8,38,0.00,,,0.00,WUHU216HW,2013-03-13 19:24:00,
2013-03-13 15:25:00,50.4,26.3,30.06,NNW,346,4.5,9.8,39,0.00,,,0.00,WUHU216HW,2013-03-13 19:25:00,
2013-03-13 15:26:00,50.4,27.0,30.06,North,0,4.0,9.8,40,0.00,,,0.00,WUHU216HW,2013-03-13 19:26:00,
2013-03-13 15:28:00,50.6,25.7,30.06,NNW,338,7.6,9.8,38,0.00,,,0.00,WUHU216HW,2013-03-13 19:28:00,
2013-03-13 15:29:00,50.4,26.3,30.06,NNW,333,6.3,9.8,39,0.00,,,0.00,WUHU216HW,2013-03-13 19:29:00,
2013-03-13 15:31:00,50.6,25.7,30.06,NNW,338,9.8,9.8,38,0.00,,,0.00,WUHU216HW,2013-03-13 19:31:00,
2013-03-13 15:32:00,50.6,24.4,30.06,NW,316,8.0,9.8,36,0.00,,,0.00,WUHU216HW,2013-03-13 19:32:00,
2013-03-13 15:33:00,50.6,25.1,30.06,NW,317,6.9,9.8,37,0.00,,,0.00,WUHU216HW,2013-03-13 19:33:00,
2013-03-13 15:34:00,50.6,25.7,30.06,NW,325,6.7,9.8,38,0.00,,,0.00,WUHU216HW,2013-03-13 19:34:00,
2013-03-13 15:37:00,50.8,25.9,30.06,NNW,329,5.0,9.8,38,0.00,,,0.00,WUHU216HW,2013-03-13 19:37:00,
2013-03-13 15:38:00,50.8,25.2,30.06,NNW,329,5.0,9.8,37,0.00,,,0.00,WUHU216HW,2013-03-13 19:38:00,
2013-03-13 15:39:00,50.6,25.1,30.06,NW,315,5.6,9.8,37,0.00,,,0.00,WUHU216HW,2013-03-13 19:39:00,
2013-03-13 15:43:00,50.8,25.2,30.06,WNW,293,9.8,9.8,37,0.00,,,0.00,WUHU216HW,2013-03-13 19:43:00,
2013-03-13 15:44:00,50.6,25.1,30.06,WNW,296,6.4,9.8,37,0.00,,,0.00,WUHU216HW,2013-03-13 19:44:00,
2013-03-13 15:45:00,50.6,25.7,30.06,NW,318,5.5,9.8,38,0.00,,,0.00,WUHU216HW,2013-03-13 19:45:00,
2013-03-13 15:48:00,50.2,24.8,30.07,NW,325,7.1,10.1,37,0.00,,,0.00,WUHU216HW,2013-03-13 19:48:00,
2013-03-13 15:49:00,50.2,24.8,30.07,NW,315,6.5,10.1,37,0.00,,,0.00,WUHU216HW,2013-03-13 19:49:00,
2013-03-13 15:50:00,50.0,24.6,30.07,WNW,292,6.3,10.1,37,0.00,,,0.00,WUHU216HW,2013-03-13 19:50:00,
2013-03-13 15:53:00,49.7,23.6,30.07,NNW,332,4.6,10.1,36,0.00,,,0.00,WUHU216HW,2013-03-13 19:53:00,
2013-03-13 15:54:00,49.7,24.9,30.07,NW,315,12.5,12.5,38,0.00,,,0.00,WUHU216HW,2013-03-13 19:54:00,
2013-03-13 15:56:00,49.9,23.8,30.07,WNW,301,8.0,12.5,36,0.00,,,0.00,WUHU216HW,2013-03-13 19:56:00,
2013-03-13 15:58:00,50.0,24.6,30.07,WNW,300,4.9,12.5,37,0.00,,,0.00,WUHU216HW,2013-03-13 19:58:00,
2013-03-13 15:59:00,50.0,25.3,30.07,WNW,293,5.4,12.5,38,0.00,,,0.00,WUHU216HW,2013-03-13 19:59:00,
2013-03-13 16:01:00,50.0,24.0,30.07,NW,311,4.7,12.5,36,0.00,,,0.00,WUHU216HW,2013-03-13 20:01:00,
2013-03-13 16:02:00,50.0,22.5,30.07,NW,315,5.8,12.5,34,0.00,,,0.00,WUHU216HW,2013-03-13 20:02:00,
2013-03-13 16:03:00,50.0,25.3,30.07,WNW,293,10.3,12.5,38,0.00,,,0.00,WUHU216HW,2013-03-13 20:03:00,
2013-03-13 16:05:00,50.0,24.6,30.07,WNW,293,8.7,10.3,37,0.00,,,0.00,WUHU216HW,2013-03-13 20:05:00,
2013-03-13 16:06:00,50.0,24.0,30.07,West,275,6.9,10.3,36,0.00,,,0.00,WUHU216HW,2013-03-13 20:06:00,
2013-03-13 16:08:00,50.0,22.5,30.06,NNW,338,6.9,10.3,34,0.00,,,0.00,WUHU216HW,2013-03-13 20:08:00,
2013-03-13 16:09:00,49.9,22.4,30.07,NW,315,6.9,10.3,34,0.00,,,0.00,WUHU216HW,2013-03-13 20:09:00,
2013-03-13 16:11:00,49.3,22.6,30.07,WNW,290,5.1,10.3,35,0.00,,,0.00,WUHU216HW,2013-03-13 20:11:00,
2013-03-13 16:13:00,48.8,22.1,30.07,NW,311,6.0,10.3,35,0.00,,,0.00,WUHU216HW,2013-03-13 20:13:00,
2013-03-13 16:14:00,48.8,22.9,30.07,WNW,293,6.3,10.1,36,0.00,,,0.00,WUHU216HW,2013-03-13 20:14:00,
2013-03-13 16:15:00,48.8,23.5,30.07,NNW,338,6.7,10.1,37,0.00,,,0.00,WUHU216HW,2013-03-13 20:15:00,
2013-03-13 16:17:00,49.0,24.3,30.07,WNW,293,9.4,10.1,38,0.00,,,0.00,WUHU216HW,2013-03-13 20:17:00,
2013-03-13 16:18:00,49.1,23.1,30.07,NW,319,5.2,10.1,36,0.00,,,0.00,WUHU216HW,2013-03-13 20:18:00,
2013-03-13 16:19:00,49.3,23.9,30.07,NNW,333,3.0,10.1,37,0.00,,,0.00,WUHU216HW,2013-03-13 20:19:00,
2013-03-13 16:20:00,49.5,24.1,30.07,North,0,5.4,10.1,37,0.00,,,0.00,WUHU216HW,2013-03-13 20:20:00,
2013-03-13 16:22:00,49.9,23.8,30.07,NNW,348,5.3,9.4,36,0.00,,,0.00,WUHU216HW,2013-03-13 20:22:00,
2013-03-13 16:24:00,50.0,24.6,30.07,NNW,346,4.2,9.4,37,0.00,,,0.00,WUHU216HW,2013-03-13 20:24:00,
2013-03-13 16:27:00,50.2,24.0,30.07,WNW,296,5.8,7.4,36,0.00,,,0.00,WUHU216HW,2013-03-13 20:27:00,
2013-03-13 16:28:00,50.2,24.8,30.07,West,275,4.6,7.4,37,0.00,,,0.00,WUHU216HW,2013-03-13 20:28:00,
2013-03-13 16:29:00,50.4,24.2,30.07,NW,315,7.2,7.4,36,0.00,,,0.00,WUHU216HW,2013-03-13 20:29:00,
2013-03-13 16:31:00,50.6,24.4,30.07,NW,315,5.6,7.4,36,0.00,,,0.00,WUHU216HW,2013-03-13 20:31:00,
2013-03-13 16:33:00,50.4,24.2,30.07,WNW,296,4.6,7.4,36,0.00,,,0.00,WUHU216HW,2013-03-13 20:33:00,
2013-03-13 16:34:00,50.4,25.6,30.07,WNW,297,3.0,7.4,38,0.00,,,0.00,WUHU216HW,2013-03-13 20:34:00,
2013-03-13 16:38:00,50.8,24.6,30.07,NW,326,4.3,7.2,36,0.00,,,0.00,WUHU216HW,2013-03-13 20:38:00,
2013-03-13 16:39:00,50.8,24.6,30.07,North,0,5.4,7.2,36,0.00,,,0.00,WUHU216HW,2013-03-13 20:39:00,
2013-03-13 16:40:00,50.8,24.6,30.07,NNW,338,9.8,9.8,36,0.00,,,0.00,WUHU216HW,2013-03-13 20:40:00,
2013-03-13 16:43:00,50.8,24.6,30.07,NW,315,4.3,9.8,36,0.00,,,0.00,WUHU216HW,2013-03-13 20:43:00,
2013-03-13 16:44:00,50.9,24.8,30.07,NNW,332,3.9,9.8,36,0.00,,,0.00,WUHU216HW,2013-03-13 20:44:00,
2013-03-13 16:45:00,50.9,24.8,30.07,NW,315,3.8,9.8,36,0.00,,,0.00,WUHU216HW,2013-03-13 20:45:00,
2013-03-13 16:49:00,51.1,23.5,30.07,NW,315,7.6,9.8,34,0.00,,,0.00,WUHU216HW,2013-03-13 20:49:00,
2013-03-13 16:50:00,51.1,24.2,30.07,North,0,6.0,7.6,35,0.00,,,0.00,WUHU216HW,2013-03-13 20:50:00,
2013-03-13 16:54:00,50.6,22.3,30.07,NNW,329,6.8,8.7,33,0.00,,,0.00,WUHU216HW,2013-03-13 20:54:00,
2013-03-13 16:55:00,50.6,22.3,30.07,North,0,6.9,8.7,33,0.00,,,0.00,WUHU216HW,2013-03-13 20:55:00,
2013-03-13 17:00:00,50.0,22.5,30.07,North,0,4.5,8.7,34,0.00,,,0.00,WUHU216HW,2013-03-13 21:00:00,
2013-03-13 17:02:00,50.0,24.0,30.07,NNW,338,4.0,8.7,36,0.00,,,0.00,WUHU216HW,2013-03-13 21:02:00,
2013-03-13 17:05:00,50.0,21.9,30.07,North,0,8.1,8.5,33,0.00,,,0.00,WUHU216HW,2013-03-13 21:05:00,
2013-03-13 17:07:00,49.9,23.0,30.08,NW,315,8.3,8.5,35,0.00,,,0.00,WUHU216HW,2013-03-13 21:07:00,
2013-03-13 17:11:00,49.7,22.2,30.08,NNW,332,6.8,11.9,34,0.00,,,0.00,WUHU216HW,2013-03-13 21:11:00,
2013-03-13 17:12:00,49.3,21.2,30.08,NW,315,10.3,11.9,33,0.00,,,0.00,WUHU216HW,2013-03-13 21:12:00,
2013-03-13 17:13:00,49.3,21.2,30.08,NW,315,10.3,11.9,33,0.00,,,0.00,WUHU216HW,2013-03-13 21:13:00,
2013-03-13 17:16:00,49.1,22.4,30.08,NW,321,6.0,11.9,35,0.00,,,0.00,WUHU216HW,2013-03-13 21:16:00,
2013-03-13 17:19:00,49.1,23.1,30.08,NNW,344,5.3,11.9,36,0.00,,,0.00,WUHU216HW,2013-03-13 21:19:00,
2013-03-13 17:22:00,48.8,22.1,30.08,NW,315,9.8,10.3,35,0.00,,,0.00,WUHU216HW,2013-03-13 21:22:00,
2013-03-13 17:24:00,48.6,22.0,30.08,NW,315,10.7,10.7,35,0.00,,,0.00,WUHU216HW,2013-03-13 21:24:00,
2013-03-13 17:25:00,48.4,21.9,30.08,NW,325,7.6,10.7,35,0.00,,,0.00,WUHU216HW,2013-03-13 21:25:00,
2013-03-13 17:27:00,48.6,23.3,30.08,NW,308,2.8,10.7,37,0.00,,,0.00,WUHU216HW,2013-03-13 21:27:00,
2013-03-13 17:28:00,48.6,22.7,30.08,NNW,338,3.4,10.7,36,0.00,,,0.00,WUHU216HW,2013-03-13 21:28:00,
2013-03-13 17:30:00,48.8,22.9,30.08,NW,315,7.6,10.7,36,0.00,,,0.00,WUHU216HW,2013-03-13 21:30:00,
2013-03-13 17:31:00,49.0,23.7,30.08,NW,326,3.9,10.7,37,0.00,,,0.00,WUHU216HW,2013-03-13 21:31:00,
2013-03-13 17:32:00,49.0,23.7,30.08,WNW,293,4.3,10.7,37,0.00,,,0.00,WUHU216HW,2013-03-13 21:32:00,
2013-03-13 17:33:00,49.0,23.0,30.08,North,0,9.2,10.7,36,0.00,,,0.00,WUHU216HW,2013-03-13 21:33:00,
2013-03-13 17:36:00,49.3,23.9,30.08,WNW,293,4.7,10.5,37,0.00,,,0.00,WUHU216HW,2013-03-13 21:36:00,
2013-03-13 17:38:00,49.5,24.1,30.09,NNW,338,6.0,10.5,37,0.00,,,0.00,WUHU216HW,2013-03-13 21:38:00,
2013-03-13 17:39:00,49.5,23.4,30.09,NW,315,6.5,10.5,36,0.00,,,0.00,WUHU216HW,2013-03-13 21:39:00,
2013-03-13 17:42:00,49.0,21.6,30.09,NNW,332,6.1,9.2,34,0.00,,,0.00,WUHU216HW,2013-03-13 21:42:00,
2013-03-13 17:43:00,48.8,21.5,30.09,NNW,336,4.3,9.2,34,0.00,,,0.00,WUHU216HW,2013-03-13 21:43:00,
2013-03-13 17:44:00,48.8,22.9,30.09,West,270,5.1,8.9,36,0.00,,,0.00,WUHU216HW,2013-03-13 21:44:00,
2013-03-13 17:48:00,48.8,22.9,30.09,NW,314,4.6,8.9,36,0.00,,,0.00,WUHU216HW,2013-03-13 21:48:00,
2013-03-13 17:49:00,48.8,23.5,30.09,WNW,293,6.7,7.4,37,0.00,,,0.00,WUHU216HW,2013-03-13 21:49:00,
2013-03-13 17:50:00,48.8,23.5,30.09,West,270,6.3,7.4,37,0.00,,,0.00,WUHU216HW,2013-03-13 21:50:00,
2013-03-13 17:51:00,48.8,22.9,30.09,WNW,301,5.2,7.4,36,0.00,,,0.00,WUHU216HW,2013-03-13 21:51:00,
2013-03-13 17:55:00,48.8,22.9,30.09,NW,314,4.7,6.9,36,0.00,,,0.00,WUHU216HW,2013-03-13 21:55:00,
2013-03-13 17:57:00,48.8,23.5,30.09,West,270,3.8,6.7,37,0.00,,,0.00,WUHU216HW,2013-03-13 21:57:00,
2013-03-13 17:59:00,48.8,23.5,30.09,NNW,338,4.1,6.7,37,0.00,,,0.00,WUHU216HW,2013-03-13 21:59:00,
2013-03-13 18:01:00,48.8,23.5,30.09,North,0,3.1,6.0,37,0.00,,,0.00,WUHU216HW,2013-03-13 22:01:00,
2013-03-13 18:02:00,48.8,22.9,30.09,WNW,293,7.2,7.4,36,0.00,,,0.00,WUHU216HW,2013-03-13 22:02:00,
2013-03-13 18:04:00,48.4,22.5,30.09,North,0,6.5,7.6,36,0.00,,,0.00,WUHU216HW,2013-03-13 22:04:00,
2013-03-13 18:06:00,47.9,22.1,30.09,WNW,293,6.9,8.3,36,0.00,,,0.00,WUHU216HW,2013-03-13 22:06:00,
2013-03-13 18:07:00,47.5,21.7,30.09,NW,319,6.0,8.3,36,0.00,,,0.00,WUHU216HW,2013-03-13 22:07:00,
2013-03-13 18:09:00,47.3,21.5,30.09,NNW,338,5.8,8.3,36,0.00,,,0.00,WUHU216HW,2013-03-13 22:09:00,
2013-03-13 18:12:00,47.2,22.1,30.09,NNW,343,3.2,8.3,37,0.00,,,0.00,WUHU216HW,2013-03-13 22:12:00,
2013-03-13 18:13:00,47.2,22.7,30.09,NNW,347,2.7,8.3,38,0.00,,,0.00,WUHU216HW,2013-03-13 22:13:00,
2013-03-13 18:14:00,47.3,22.2,30.09,NW,315,4.9,7.8,37,0.00,,,0.00,WUHU216HW,2013-03-13 22:14:00,
2013-03-13 18:18:00,47.3,22.2,30.09,NNW,338,7.6,7.6,37,0.00,,,0.00,WUHU216HW,2013-03-13 22:18:00,
2013-03-13 18:19:00,47.3,22.2,30.09,NNW,342,6.2,7.6,37,0.00,,,0.00,WUHU216HW,2013-03-13 22:19:00,
2013-03-13 18:20:00,47.3,22.9,30.09,NNW,340,4.8,7.6,38,0.00,,,0.00,WUHU216HW,2013-03-13 22:20:00,
2013-03-13 18:23:00,47.2,22.7,30.09,NNW,332,3.5,7.6,38,0.00,,,0.00,WUHU216HW,2013-03-13 22:23:00,
2013-03-13 18:24:00,47.2,22.7,30.10,WNW,293,4.0,7.6,38,0.00,,,0.00,WUHU216HW,2013-03-13 22:24:00,
2013-03-13 18:25:00,47.2,22.1,30.10,North,0,7.2,7.6,37,0.00,,,0.00,WUHU216HW,2013-03-13 22:25:00,
2013-03-13 18:26:00,47.2,22.1,30.10,NNW,338,5.8,7.6,37,0.00,,,0.00,WUHU216HW,2013-03-13 22:26:00,
2013-03-13 18:29:00,47.0,21.9,30.10,NW,315,4.3,7.4,37,0.00,,,0.00,WUHU216HW,2013-03-13 22:29:00,
2013-03-13 18:30:00,47.0,21.3,30.10,NNW,338,4.0,7.4,36,0.00,,,0.00,WUHU216HW,2013-03-13 22:30:00,
2013-03-13 18:32:00,46.8,21.7,30.10,NW,325,4.8,7.4,37,0.00,,,0.00,WUHU216HW,2013-03-13 22:32:00,
2013-03-13 18:35:00,46.8,21.7,30.10,NW,315,5.4,7.4,37,0.00,,,0.00,WUHU216HW,2013-03-13 22:35:00,
2013-03-13 18:37:00,46.4,21.4,30.10,NW,316,4.5,7.4,37,0.00,,,0.00,WUHU216HW,2013-03-13 22:37:00,
2013-03-13 18:38:00,46.4,21.4,30.10,NW,316,4.6,7.6,37,0.00,,,0.00,WUHU216HW,2013-03-13 22:38:00,
2013-03-13 18:40:00,46.4,22.1,30.10,WNW,293,4.0,7.6,38,0.00,,,0.00,WUHU216HW,2013-03-13 22:40:00,
2013-03-13 18:42:00,46.3,21.2,30.10,WNW,297,6.6,9.8,37,0.00,,,0.00,WUHU216HW,2013-03-13 22:42:00,
2013-03-13 18:43:00,46.3,21.2,30.10,North,0,6.5,9.8,37,0.00,,,0.00,WUHU216HW,2013-03-13 22:43:00,
2013-03-13 18:44:00,46.1,21.1,30.10,NW,308,4.0,9.8,37,0.00,,,0.00,WUHU216HW,2013-03-13 22:44:00,
2013-03-13 18:45:00,45.9,20.9,30.10,NW,309,4.4,9.8,37,0.00,,,0.00,WUHU216HW,2013-03-13 22:45:00,
2013-03-13 18:48:00,45.7,20.8,30.10,WNW,293,8.5,9.8,37,0.00,,,0.00,WUHU216HW,2013-03-13 22:48:00,
2013-03-13 18:49:00,45.7,20.8,30.10,NNW,338,5.4,9.8,37,0.00,,,0.00,WUHU216HW,2013-03-13 22:49:00,
2013-03-13 18:50:00,45.7,21.4,30.10,NNW,327,4.3,9.8,38,0.00,,,0.00,WUHU216HW,2013-03-13 22:50:00,
2013-03-13 18:51:00,45.7,21.4,30.10,NW,315,3.4,9.8,38,0.00,,,0.00,WUHU216HW,2013-03-13 22:51:00,
2013-03-13 18:54:00,45.5,22.0,30.10,WNW,293,4.5,8.5,39,0.00,,,0.00,WUHU216HW,2013-03-13 22:54:00,
2013-03-13 18:56:00,45.4,21.8,30.10,WNW,301,3.0,8.5,39,0.00,,,0.00,WUHU216HW,2013-03-13 22:56:00,
2013-03-13 19:00:00,45.2,21.6,30.11,NW,315,3.4,7.2,39,0.00,,,0.00,WUHU216HW,2013-03-13 23:00:00,
2013-03-13 19:01:00,45.2,21.6,30.11,NNW,338,3.4,7.2,39,0.00,,,0.00,WUHU216HW,2013-03-13 23:01:00,
2013-03-13 19:02:00,45.2,21.6,30.11,WNW,293,3.4,7.2,39,0.00,,,0.00,WUHU216HW,2013-03-13 23:02:00,
2013-03-13 19:05:00,45.0,22.2,30.11,North,0,3.1,7.2,40,0.00,,,0.00,WUHU216HW,2013-03-13 23:05:00,
2013-03-13 19:07:00,44.8,22.0,30.11,NNW,339,2.2,7.2,40,0.00,,,0.00,WUHU216HW,2013-03-13 23:07:00,
2013-03-13 19:08:00,44.8,22.0,30.11,NW,315,4.5,4.9,40,0.00,,,0.00,WUHU216HW,2013-03-13 23:08:00,
2013-03-13 19:10:00,44.6,21.2,30.11,NNW,340,5.1,8.1,39,0.00,,,0.00,WUHU216HW,2013-03-13 23:10:00,
2013-03-13 19:13:00,44.5,21.0,30.11,NW,315,6.5,8.1,39,0.00,,,0.00,WUHU216HW,2013-03-13 23:13:00,
2013-03-13 19:14:00,44.3,20.8,30.11,NW,324,5.7,8.5,39,0.00,,,0.00,WUHU216HW,2013-03-13 23:14:00,
2013-03-13 19:15:00,44.3,20.8,30.11,NNW,333,4.7,8.5,39,0.00,,,0.00,WUHU216HW,2013-03-13 23:15:00,
2013-03-13 19:16:00,44.3,20.8,30.11,NNW,338,3.6,8.5,39,0.00,,,0.00,WUHU216HW,2013-03-13 23:16:00,
2013-03-13 19:18:00,44.3,21.4,30.11,NNW,338,4.0,8.5,40,0.00,,,0.00,WUHU216HW,2013-03-13 23:18:00,
2013-03-13 19:20:00,44.1,21.3,30.11,NNW,339,3.9,8.5,40,0.00,,,0.00,WUHU216HW,2013-03-13 23:20:00,
2013-03-13 19:22:00,43.9,21.2,30.11,NW,315,4.3,8.5,40,0.00,,,0.00,WUHU216HW,2013-03-13 23:22:00,
2013-03-13 19:23:00,43.9,21.2,30.11,North,0,5.6,8.3,40,0.00,,,0.00,WUHU216HW,2013-03-13 23:23:00,
2013-03-13 19:25:00,43.7,21.0,30.11,NNW,336,5.0,7.6,40,0.00,,,0.00,WUHU216HW,2013-03-13 23:25:00,
2013-03-13 19:27:00,43.7,21.0,30.12,North,0,4.7,7.6,40,0.00,,,0.00,WUHU216HW,2013-03-13 23:27:00,
2013-03-13 19:29:00,43.6,20.8,30.12,North,351,3.5,7.6,40,0.00,,,0.00,WUHU216HW,2013-03-13 23:29:00,
2013-03-13 19:32:00,43.4,21.2,30.12,NNW,338,2.5,7.6,41,0.00,,,0.00,WUHU216HW,2013-03-13 23:32:00,
2013-03-13 19:33:00,43.4,21.2,30.12,NNE,23,2.7,7.6,41,0.00,,,0.00,WUHU216HW,2013-03-13 23:33:00,
2013-03-13 19:34:00,43.4,21.2,30.12,NNW,340,3.0,7.6,41,0.00,,,0.00,WUHU216HW,2013-03-13 23:34:00,
2013-03-13 19:37:00,43.0,21.4,30.12,NNW,331,2.7,5.1,42,0.00,,,0.00,WUHU216HW,2013-03-13 23:37:00,
2013-03-13 19:39:00,42.8,21.2,30.12,North,0,2.0,4.7,42,0.00,,,0.00,WUHU216HW,2013-03-13 23:39:00,
2013-03-13 19:40:00,42.8,21.2,30.12,West,270,2.7,4.7,42,0.00,,,0.00,WUHU216HW,2013-03-13 23:40:00,
2013-03-13 19:43:00,42.7,20.5,30.12,NNW,329,4.4,6.3,41,0.00,,,0.00,WUHU216HW,2013-03-13 23:43:00,
2013-03-13 19:44:00,42.8,21.2,30.12,NW,315,4.7,6.3,42,0.00,,,0.00,WUHU216HW,2013-03-13 23:44:00,
2013-03-13 19:45:00,42.7,21.1,30.12,NW,315,4.7,6.3,42,0.00,,,0.00,WUHU216HW,2013-03-13 23:45:00,
2013-03-13 19:48:00,42.5,20.9,30.12,NNW,333,3.5,7.2,42,0.00,,,0.00,WUHU216HW,2013-03-13 23:48:00,
2013-03-13 19:50:00,42.5,20.9,30.12,WNW,293,2.7,7.2,42,0.00,,,0.00,WUHU216HW,2013-03-13 23:50:00,
2013-03-13 19:51:00,42.5,20.9,30.12,NW,321,2.0,7.2,42,0.00,,,0.00,WUHU216HW,2013-03-13 23:51:00,
2013-03-13 19:54:00,42.3,20.7,30.12,NNW,334,2.2,7.2,42,0.00,,,0.00,WUHU216HW,2013-03-13 23:54:00,
2013-03-13 19:55:00,42.1,20.6,30.12,WNW,293,2.9,7.2,42,0.00,,,0.00,WUHU216HW,2013-03-13 23:55:00,
2013-03-13 19:56:00,42.1,20.6,30.12,NW,310,2.6,7.2,42,0.00,,,0.00,WUHU216HW,2013-03-13 23:56:00,
2013-03-13 19:58:00,42.1,20.6,30.12,NW,315,3.6,5.8,42,0.00,,,0.00,WUHU216HW,2013-03-13 23:58:00,
2013-03-13 19:59:00,42.1,21.2,30.12,NNW,328,3.0,5.8,43,0.00,,,0.00,WUHU216HW,2013-03-13 23:59:00,
2013-03-13 20:00:00,41.9,21.0,30.12,NNW,338,2.5,5.8,43,0.00,,,0.00,WUHU216HW,2013-03-14 00:00:00,
2013-03-13 20:01:00,41.9,21.0,30.12,NNW,336,2.2,5.4,43,0.00,,,0.00,WUHU216HW,2013-03-14 00:01:00,
2013-03-13 20:03:00,41.8,20.8,30.12,North,0,4.0,4.5,43,0.00,,,0.00,WUHU216HW,2013-03-14 00:03:00,
2013-03-13 20:04:00,41.8,20.8,30.12,NNW,337,3.3,4.9,43,0.00,,,0.00,WUHU216HW,2013-03-14 00:04:00,
2013-03-13 20:07:00,41.6,20.6,30.12,NW,315,2.7,4.9,43,0.00,,,0.00,WUHU216HW,2013-03-14 00:07:00,
2013-03-13 20:08:00,41.6,20.6,30.12,NW,318,2.4,4.9,43,0.00,,,0.00,WUHU216HW,2013-03-14 00:08:00,
2013-03-13 20:10:00,41.6,20.6,30.12,NNW,338,3.6,4.9,43,0.00,,,0.00,WUHU216HW,2013-03-14 00:10:00,
2013-03-13 20:13:00,41.4,20.4,30.12,NW,318,2.4,4.9,43,0.00,,,0.00,WUHU216HW,2013-03-14 00:13:00,
2013-03-13 20:14:00,41.4,20.4,30.12,NNW,338,2.2,4.9,43,0.00,,,0.00,WUHU216HW,2013-03-14 00:14:00,
2013-03-13 20:15:00,41.4,20.4,30.12,NNW,344,3.1,4.7,43,0.00,,,0.00,WUHU216HW,2013-03-14 00:15:00,
2013-03-13 20:18:00,41.2,20.3,30.13,NNE,23,1.8,4.7,43,0.00,,,0.00,WUHU216HW,2013-03-14 00:18:00,
2013-03-13 20:19:00,41.2,20.3,30.13,NNE,23,1.8,4.7,43,0.00,,,0.00,WUHU216HW,2013-03-14 00:19:00,
2013-03-13 20:20:00,41.2,20.8,30.13,NNW,338,1.8,4.7,44,0.00,,,0.00,WUHU216HW,2013-03-14 00:20:00,
2013-03-13 20:24:00,41.0,20.6,30.12,NNW,338,5.0,9.2,44,0.00,,,0.00,WUHU216HW,2013-03-14 00:24:00,
2013-03-13 20:25:00,41.0,20.6,30.13,NNW,347,5.3,9.2,44,0.00,,,0.00,WUHU216HW,2013-03-14 00:25:00,
2013-03-13 20:26:00,41.0,20.6,30.13,North,9,3.7,9.2,44,0.00,,,0.00,WUHU216HW,2013-03-14 00:26:00,
2013-03-13 20:29:00,40.9,21.0,30.13,NNW,344,4.0,9.2,45,0.00,,,0.00,WUHU216HW,2013-03-14 00:29:00,
2013-03-13 20:30:00,40.9,20.4,30.13,NNW,335,3.3,9.2,44,0.00,,,0.00,WUHU216HW,2013-03-14 00:30:00,
2013-03-13 20:31:00,40.9,20.4,30.13,NNW,335,2.9,9.2,44,0.00,,,0.00,WUHU216HW,2013-03-14 00:31:00,
2013-03-13 20:35:00,40.7,20.8,30.13,NW,315,3.1,6.5,45,0.00,,,0.00,WUHU216HW,2013-03-14 00:35:00,
2013-03-13 20:36:00,40.7,20.8,30.13,NW,315,3.1,6.5,45,0.00,,,0.00,WUHU216HW,2013-03-14 00:36:00,
2013-03-13 20:37:00,40.7,20.8,30.13,NNW,339,2.7,6.5,45,0.00,,,0.00,WUHU216HW,2013-03-14 00:37:00,
2013-03-13 20:41:00,40.5,20.7,30.13,North,353,2.3,6.0,45,0.00,,,0.00,WUHU216HW,2013-03-14 00:41:00,
2013-03-13 20:42:00,40.5,20.7,30.13,NNW,347,1.6,6.0,45,0.00,,,0.00,WUHU216HW,2013-03-14 00:42:00,
2013-03-13 20:43:00,40.3,20.5,30.13,NW,315,2.2,6.0,45,0.00,,,0.00,WUHU216HW,2013-03-14 00:43:00,
2013-03-13 20:46:00,40.0,20.7,30.13,NW,315,2.5,6.0,46,0.00,,,0.00,WUHU216HW,2013-03-14 00:46:00,
2013-03-13 20:47:00,40.0,20.7,30.14,NNW,329,1.5,6.0,46,0.00,,,0.00,WUHU216HW,2013-03-14 00:47:00,
2013-03-13 20:48:00,40.0,20.7,30.14,NNW,328,1.5,6.0,46,0.00,,,0.00,WUHU216HW,2013-03-14 00:48:00,
2013-03-13 20:52:00,39.8,21.1,30.14,NNW,338,3.4,3.8,47,0.00,,,0.00,WUHU216HW,2013-03-14 00:52:00,
2013-03-13 20:53:00,39.8,21.1,30.14,WNW,293,2.9,3.8,47,0.00,,,0.00,WUHU216HW,2013-03-14 00:53:00,
2013-03-13 20:54:00,39.8,21.1,30.14,NNE,23,2.5,3.8,47,0.00,,,0.00,WUHU216HW,2013-03-14 00:54:00,
2013-03-13 20:57:00,39.6,21.4,30.14,NNE,23,5.1,6.7,48,0.00,,,0.00,WUHU216HW,2013-03-14 00:57:00,
2013-03-13 20:58:00,39.6,21.4,30.14,NNW,345,4.2,6.7,48,0.00,,,0.00,WUHU216HW,2013-03-14 00:58:00,
2013-03-13 20:59:00,39.6,21.4,30.14,North,0,3.8,6.7,48,0.00,,,0.00,WUHU216HW,2013-03-14 00:59:00,
2013-03-13 21:00:00,39.6,21.4,30.14,North,5,3.4,6.7,48,0.00,,,0.00,WUHU216HW,2013-03-14 01:00:00,
2013-03-13 21:03:00,39.6,21.4,30.15,NNW,343,4.1,6.7,48,0.00,,,0.00,WUHU216HW,2013-03-14 01:03:00,
2013-03-13 21:05:00,39.6,21.4,30.15,North,1,2.6,6.7,48,0.00,,,0.00,WUHU216HW,2013-03-14 01:05:00,
2013-03-13 21:06:00,39.4,20.7,30.15,NNW,338,2.5,6.7,47,0.00,,,0.00,WUHU216HW,2013-03-14 01:06:00,
2013-03-13 21:08:00,39.2,21.1,30.15,North,0,5.4,7.2,48,0.00,,,0.00,WUHU216HW,2013-03-14 01:08:00,
2013-03-13 21:10:00,39.2,21.1,30.15,North,356,4.4,7.2,48,0.00,,,0.00,WUHU216HW,2013-03-14 01:10:00,
2013-03-13 21:11:00,39.2,21.1,30.15,North,356,4.3,7.2,48,0.00,,,0.00,WUHU216HW,2013-03-14 01:11:00,
2013-03-13 21:14:00,39.1,21.0,30.15,NNW,338,3.4,7.2,48,0.00,,,0.00,WUHU216HW,2013-03-14 01:14:00,
2013-03-13 21:16:00,38.9,20.8,30.15,North,0,6.3,7.2,48,0.00,,,0.00,WUHU216HW,2013-03-14 01:16:00,
2013-03-13 21:17:00,38.9,20.8,30.15,NNE,23,4.3,6.9,48,0.00,,,0.00,WUHU216HW,2013-03-14 01:17:00,
2013-03-13 21:19:00,38.7,21.2,30.15,NNW,345,3.2,6.9,49,0.00,,,0.00,WUHU216HW,2013-03-14 01:19:00,
2013-03-13 21:22:00,38.5,21.0,30.15,NNW,348,4.4,6.3,49,0.00,,,0.00,WUHU216HW,2013-03-14 01:22:00,
2013-03-13 21:23:00,38.5,21.5,30.15,WNW,293,5.4,6.3,50,0.00,,,0.00,WUHU216HW,2013-03-14 01:23:00,
2013-03-13 21:24:00,38.5,21.0,30.15,NW,322,5.5,6.3,49,0.00,,,0.00,WUHU216HW,2013-03-14 01:24:00,
2013-03-13 21:27:00,38.3,21.3,30.15,NNW,329,4.9,7.4,50,0.00,,,0.00,WUHU216HW,2013-03-14 01:27:00,
2013-03-13 21:28:00,38.3,21.3,30.15,North,350,4.7,7.4,50,0.00,,,0.00,WUHU216HW,2013-03-14 01:28:00,
2013-03-13 21:29:00,38.3,21.3,30.15,North,353,4.8,7.4,50,0.00,,,0.00,WUHU216HW,2013-03-14 01:29:00,
2013-03-13 21:30:00,38.2,21.2,30.15,North,0,6.0,7.4,50,0.00,,,0.00,WUHU216HW,2013-03-14 01:30:00,
2013-03-13 21:33:00,38.0,21.0,30.16,NNW,338,6.9,7.4,50,0.00,,,0.00,WUHU216HW,2013-03-14 01:33:00,
2013-03-13 21:34:00,38.0,21.0,30.15,NNW,348,5.0,7.4,50,0.00,,,0.00,WUHU216HW,2013-03-14 01:34:00,
2013-03-13 21:37:00,37.8,20.9,30.16,North,349,4.7,10.3,50,0.00,,,0.00,WUHU216HW,2013-03-14 01:37:00,
2013-03-13 21:38:00,37.8,20.9,30.16,NNW,338,4.7,10.3,50,0.00,,,0.00,WUHU216HW,2013-03-14 01:38:00,
2013-03-13 21:39:00,37.8,21.2,30.16,NNW,343,3.6,10.3,51,0.00,,,0.00,WUHU216HW,2013-03-14 01:39:00,
2013-03-13 21:43:00,37.6,21.2,30.16,NNW,344,4.0,10.3,51,0.00,,,0.00,WUHU216HW,2013-03-14 01:43:00,
2013-03-13 21:44:00,37.4,21.0,30.16,NNW,338,5.4,10.3,51,0.00,,,0.00,WUHU216HW,2013-03-14 01:44:00,
2013-03-13 21:45:00,37.4,21.0,30.16,NNW,333,5.1,10.3,51,0.00,,,0.00,WUHU216HW,2013-03-14 01:45:00,
2013-03-13 21:48:00,37.4,21.0,30.16,West,270,4.5,6.7,51,0.00,,,0.00,WUHU216HW,2013-03-14 01:48:00,
2013-03-13 21:49:00,37.3,20.8,30.16,NNW,338,4.7,6.7,51,0.00,,,0.00,WUHU216HW,2013-03-14 01:49:00,
2013-03-13 21:50:00,37.3,20.8,30.16,NNW,338,4.7,6.7,51,0.00,,,0.00,WUHU216HW,2013-03-14 01:50:00,
2013-03-13 21:53:00,37.1,21.1,30.16,WSW,248,5.8,8.7,52,0.00,,,0.00,WUHU216HW,2013-03-14 01:53:00,
2013-03-13 21:55:00,37.1,21.1,30.16,NNW,342,5.3,8.7,52,0.00,,,0.00,WUHU216HW,2013-03-14 01:55:00,
2013-03-13 21:56:00,37.1,20.6,30.16,NNW,338,5.4,8.7,51,0.00,,,0.00,WUHU216HW,2013-03-14 01:56:00,
2013-03-13 21:58:00,36.9,20.9,30.16,NW,315,6.3,8.7,52,0.00,,,0.00,WUHU216HW,2013-03-14 01:58:00,
2013-03-13 22:00:00,36.9,20.9,30.16,NNW,336,4.2,8.7,52,0.00,,,0.00,WUHU216HW,2013-03-14 02:00:00,
2013-03-13 22:01:00,36.9,20.9,30.16,NNW,343,3.8,7.2,52,0.00,,,0.00,WUHU216HW,2013-03-14 02:01:00,
2013-03-13 22:04:00,36.7,20.7,30.17,NW,315,4.0,7.2,52,0.00,,,0.00,WUHU216HW,2013-03-14 02:04:00,
2013-03-13 22:06:00,36.5,20.6,30.17,NNW,346,3.7,7.2,52,0.00,,,0.00,WUHU216HW,2013-03-14 02:06:00,
2013-03-13 22:07:00,36.5,20.6,30.17,NNW,346,3.5,6.9,52,0.00,,,0.00,WUHU216HW,2013-03-14 02:07:00,
2013-03-13 22:08:00,36.4,20.4,30.17,NNW,338,4.0,6.9,52,0.00,,,0.00,WUHU216HW,2013-03-14 02:08:00,
2013-03-13 22:09:00,36.4,20.4,30.17,NNW,344,4.1,6.3,52,0.00,,,0.00,WUHU216HW,2013-03-14 02:09:00,
2013-03-13 22:11:00,36.4,20.4,30.17,North,1,4.5,6.3,52,0.00,,,0.00,WUHU216HW,2013-03-14 02:11:00,
2013-03-13 22:12:00,36.4,20.4,30.17,North,3,4.6,6.3,52,0.00,,,0.00,WUHU216HW,2013-03-14 02:12:00,
2013-03-13 22:14:00,36.4,20.4,30.17,NNW,338,6.9,6.9,52,0.00,,,0.00,WUHU216HW,2013-03-14 02:14:00,
2013-03-13 22:17:00,36.2,20.3,30.17,WNW,293,5.4,6.9,52,0.00,,,0.00,WUHU216HW,2013-03-14 02:17:00,
2013-03-13 22:19:00,36.2,19.8,30.17,NNW,346,6.4,8.5,51,0.00,,,0.00,WUHU216HW,2013-03-14 02:19:00,
2013-03-13 22:20:00,36.2,19.8,30.17,NNW,342,5.1,8.5,51,0.00,,,0.00,WUHU216HW,2013-03-14 02:20:00,
2013-03-13 22:22:00,36.0,20.1,30.17,NNW,338,5.8,8.5,52,0.00,,,0.00,WUHU216HW,2013-03-14 02:22:00,
2013-03-13 22:23:00,36.0,20.1,30.17,NNW,333,4.4,8.5,52,0.00,,,0.00,WUHU216HW,2013-03-14 02:23:00,
2013-03-13 22:24:00,36.0,20.1,30.17,NNW,342,3.5,8.5,52,0.00,,,0.00,WUHU216HW,2013-03-14 02:24:00,
2013-03-13 22:25:00,36.0,20.1,30.17,NNW,348,2.9,8.5,52,0.00,,,0.00,WUHU216HW,2013-03-14 02:25:00,
2013-03-13 22:28:00,35.8,19.9,30.17,NW,324,2.7,8.5,52,0.00,,,0.00,WUHU216HW,2013-03-14 02:28:00,
2013-03-13 22:29:00,35.8,19.9,30.17,North,0,3.4,6.9,52,0.00,,,0.00,WUHU216HW,2013-03-14 02:29:00,
2013-03-13 22:31:00,35.6,19.8,30.18,NNW,343,2.7,6.9,52,0.00,,,0.00,WUHU216HW,2013-03-14 02:31:00,
2013-03-13 22:33:00,35.6,20.2,30.18,West,270,2.7,5.1,53,0.00,,,0.00,WUHU216HW,2013-03-14 02:33:00,
2013-03-13 22:34:00,35.6,20.2,30.18,NW,315,3.0,5.6,53,0.00,,,0.00,WUHU216HW,2013-03-14 02:34:00,
2013-03-13 22:35:00,35.5,19.6,30.18,NW,315,3.0,5.6,52,0.00,,,0.00,WUHU216HW,2013-03-14 02:35:00,
2013-03-13 22:37:00,35.5,20.0,30.18,North,0,4.7,5.6,53,0.00,,,0.00,WUHU216HW,2013-03-14 02:37:00,
2013-03-13 22:39:00,35.3,19.5,30.18,NW,315,4.0,5.6,52,0.00,,,0.00,WUHU216HW,2013-03-14 02:39:00,
2013-03-13 22:40:00,35.3,19.5,30.18,NNW,329,3.4,5.6,52,0.00,,,0.00,WUHU216HW,2013-03-14 02:40:00,
2013-03-13 22:42:00,35.3,19.8,30.18,NNW,334,3.3,5.6,53,0.00,,,0.00,WUHU216HW,2013-03-14 02:42:00,
2013-03-13 22:44:00,35.3,19.5,30.18,North,349,3.2,5.4,52,0.00,,,0.00,WUHU216HW,2013-03-14 02:44:00,
2013-03-13 22:45:00,35.1,19.3,30.18,NNW,345,2.6,5.4,52,0.00,,,0.00,WUHU216HW,2013-03-14 02:45:00,
2013-03-13 22:46:00,35.3,19.5,30.18,North,0,3.1,5.4,52,0.00,,,0.00,WUHU216HW,2013-03-14 02:46:00,
2013-03-13 22:48:00,35.1,19.3,30.18,NW,315,3.8,5.4,52,0.00,,,0.00,WUHU216HW,2013-03-14 02:48:00,
2013-03-13 22:50:00,35.1,19.3,30.18,North,0,4.3,5.4,52,0.00,,,0.00,WUHU216HW,2013-03-14 02:50:00,
2013-03-13 22:51:00,34.9,19.4,30.18,North,349,3.2,5.4,53,0.00,,,0.00,WUHU216HW,2013-03-14 02:51:00,
2013-03-13 22:55:00,34.9,19.4,30.18,NNW,346,3.1,5.4,53,0.00,,,0.00,WUHU216HW,2013-03-14 02:55:00,
2013-03-13 22:57:00,34.9,19.4,30.18,North,0,3.8,5.4,53,0.00,,,0.00,WUHU216HW,2013-03-14 02:57:00,
2013-03-13 22:58:00,34.7,19.3,30.18,NNW,335,1.9,5.4,53,0.00,,,0.00,WUHU216HW,2013-03-14 02:58:00,
2013-03-13 23:01:00,34.6,19.1,30.18,NNW,340,3.8,5.6,53,0.00,,,0.00,WUHU216HW,2013-03-14 03:01:00,
2013-03-13 23:02:00,34.6,19.1,30.18,NNW,336,3.2,5.6,53,0.00,,,0.00,WUHU216HW,2013-03-14 03:02:00,
2013-03-13 23:04:00,34.6,19.1,30.18,North,354,3.0,5.6,53,0.00,,,0.00,WUHU216HW,2013-03-14 03:04:00,
2013-03-13 23:07:00,34.6,19.1,30.18,NNW,343,3.7,6.0,53,0.00,,,0.00,WUHU216HW,2013-03-14 03:07:00,
2013-03-13 23:09:00,34.4,18.9,30.18,NNW,333,1.9,6.0,53,0.00,,,0.00,WUHU216HW,2013-03-14 03:09:00,
2013-03-13 23:10:00,34.4,18.9,30.18,NNW,335,2.0,6.0,53,0.00,,,0.00,WUHU216HW,2013-03-14 03:10:00,
2013-03-13 23:12:00,34.2,19.2,30.18,North,0,3.8,6.0,54,0.00,,,0.00,WUHU216HW,2013-03-14 03:12:00,
2013-03-13 23:13:00,34.2,19.2,30.18,NNW,338,5.6,6.0,54,0.00,,,0.00,WUHU216HW,2013-03-14 03:13:00,
2013-03-13 23:14:00,34.2,19.2,30.18,NNW,338,4.0,6.0,54,0.00,,,0.00,WUHU216HW,2013-03-14 03:14:00,
2013-03-13 23:15:00,34.2,19.2,30.18,NNW,336,3.6,6.0,54,0.00,,,0.00,WUHU216HW,2013-03-14 03:15:00,
2013-03-13 23:17:00,34.2,19.2,30.18,NNW,346,2.6,5.6,54,0.00,,,0.00,WUHU216HW,2013-03-14 03:17:00,
2013-03-13 23:18:00,34.2,19.2,30.18,North,0,3.4,5.6,54,0.00,,,0.00,WUHU216HW,2013-03-14 03:18:00,
2013-03-13 23:20:00,34.2,19.2,30.18,North,1,2.5,5.6,54,0.00,,,0.00,WUHU216HW,2013-03-14 03:20:00,
2013-03-13 23:22:00,34.0,19.0,30.18,NNW,334,2.8,5.6,54,0.00,,,0.00,WUHU216HW,2013-03-14 03:22:00,
2013-03-13 23:23:00,34.0,19.0,30.18,North,0,5.6,5.6,54,0.00,,,0.00,WUHU216HW,2013-03-14 03:23:00,
2013-03-13 23:25:00,33.8,18.8,30.18,ENE,68,5.8,5.8,54,0.00,,,0.00,WUHU216HW,2013-03-14 03:25:00,
2013-03-13 23:27:00,34.0,19.0,30.19,North,352,4.0,5.8,54,0.00,,,0.00,WUHU216HW,2013-03-14 03:27:00,
2013-03-13 23:29:00,33.8,18.8,30.19,North,0,4.0,5.8,54,0.00,,,0.00,WUHU216HW,2013-03-14 03:29:00,
2013-03-13 23:32:00,33.8,18.8,30.19,NNW,338,3.4,5.8,54,0.00,,,0.00,WUHU216HW,2013-03-14 03:32:00,
2013-03-13 23:33:00,33.8,18.8,30.19,NNW,338,3.4,5.8,54,0.00,,,0.00,WUHU216HW,2013-03-14 03:33:00,
2013-03-13 23:34:00,33.8,18.8,30.18,NNW,336,2.9,5.8,54,0.00,,,0.00,WUHU216HW,2013-03-14 03:34:00,
2013-03-13 23:37:00,33.7,18.6,30.19,NNW,338,2.0,5.4,54,0.00,,,0.00,WUHU216HW,2013-03-14 03:37:00,
2013-03-13 23:38:00,33.7,18.6,30.19,NNW,338,3.4,5.4,54,0.00,,,0.00,WUHU216HW,2013-03-14 03:38:00,
2013-03-13 23:39:00,33.5,18.6,30.19,NNW,338,3.4,5.4,54,0.00,,,0.00,WUHU216HW,2013-03-14 03:39:00,
2013-03-13 23:40:00,33.5,18.6,30.19,NNW,341,2.9,5.4,54,0.00,,,0.00,WUHU216HW,2013-03-14 03:40:00,
2013-03-13 23:43:00,33.5,18.6,30.19,NNW,338,3.4,4.0,54,0.00,,,0.00,WUHU216HW,2013-03-14 03:43:00,
2013-03-13 23:44:00,33.5,18.6,30.19,NNW,339,3.0,4.0,54,0.00,,,0.00,WUHU216HW,2013-03-14 03:44:00,
2013-03-13 23:45:00,33.5,18.6,30.19,NNW,338,2.7,4.0,54,0.00,,,0.00,WUHU216HW,2013-03-14 03:45:00,
2013-03-13 23:49:00,33.5,18.9,30.19,NNW,330,2.7,3.8,55,0.00,,,0.00,WUHU216HW,2013-03-14 03:49:00,
2013-03-13 23:50:00,33.5,18.9,30.19,NNW,338,1.4,3.8,55,0.00,,,0.00,WUHU216HW,2013-03-14 03:50:00,
2013-03-13 23:54:00,33.1,18.6,30.19,NNW,338,3.4,3.8,55,0.00,,,0.00,WUHU216HW,2013-03-14 03:54:00,
2013-03-13 23:55:00,33.1,18.6,30.19,NNW,339,2.2,3.8,55,0.00,,,0.00,WUHU216HW,2013-03-14 03:55:00,
2013-03-13 23:56:00,33.1,18.6,30.19,North,0,5.1,5.1,55,0.00,,,0.00,WUHU216HW,2013-03-14 03:56:00,
2013-03-13 23:57:00,33.1,18.6,30.19,North,354,2.9,5.1,55,0.00,,,0.00,WUHU216HW,2013-03-14 03:57:00,
2013-03-13 23:59:00,33.1,18.6,30.19,North,359,1.2,5.1,55,0.00,,,0.00,WUHU216HW,2013-03-14 03:59:00,